<?xml version="1.0" encoding="UTF-8" standalone="no" ?>
<gpx xmlns="http://www.topografix.com/GPX/1/1" xmlns:xsi="http://www.w3.org/2001/XMLSchema-instance" xsi:schemaLocation="http://www.topografix.com/GPX/1/1 http://www.topografix.com/GPX/1/1/gpx.xsd" version="1.1" creator="VisuGPX - https://www.visugpx.com">
  <metadata>
    <name>Traversée des hautes alpes 5/7 </name>
    <desc><![CDATA[Traversée de hautes alpes 5/7 : Mizoen à Montrond ou de la Meije au Buech.]]></desc>
  </metadata>
  <trk>
    <name><![CDATA[track]]></name>
    <trkseg>
      <trkpt lat="44.56546" lon="6.49713">
        <ele>870</ele>
        <time>2009-11-23T07:24:21Z</time>
      </trkpt>
      <trkpt lat="44.56546" lon="6.49713">
        <ele>870</ele>
        <time>2009-11-23T07:24:21Z</time>
      </trkpt>
      <trkpt lat="44.56546" lon="6.49713">
        <ele>870</ele>
        <time>2009-11-23T07:24:21Z</time>
      </trkpt>
      <trkpt lat="44.56546" lon="6.49713">
        <ele>870</ele>
        <time>2009-11-23T07:24:21Z</time>
      </trkpt>
      <trkpt lat="44.56555" lon="6.49657">
        <ele>872</ele>
        <time>2009-11-23T07:24:21Z</time>
      </trkpt>
      <trkpt lat="44.56566" lon="6.49598">
        <ele>873</ele>
        <time>2009-11-23T07:24:21Z</time>
      </trkpt>
      <trkpt lat="44.56622" lon="6.49533">
        <ele>873</ele>
        <time>2009-11-23T07:24:21Z</time>
      </trkpt>
      <trkpt lat="44.5664" lon="6.49496">
        <ele>875</ele>
        <time>2009-11-23T07:24:21Z</time>
      </trkpt>
      <trkpt lat="44.56679" lon="6.49411">
        <ele>883</ele>
        <time>2009-11-23T07:24:21Z</time>
      </trkpt>
      <trkpt lat="44.56696" lon="6.49378">
        <ele>889</ele>
        <time>2009-11-23T07:24:21Z</time>
      </trkpt>
      <trkpt lat="44.56656" lon="6.49312">
        <ele>889</ele>
        <time>2009-11-23T07:24:21Z</time>
      </trkpt>
      <trkpt lat="44.56647" lon="6.49251">
        <ele>892</ele>
        <time>2009-11-23T07:24:21Z</time>
      </trkpt>
      <trkpt lat="44.56684" lon="6.49207">
        <ele>902</ele>
        <time>2009-11-23T07:24:21Z</time>
      </trkpt>
      <trkpt lat="44.56743" lon="6.49249">
        <ele>911</ele>
        <time>2009-11-23T07:24:21Z</time>
      </trkpt>
      <trkpt lat="44.56745" lon="6.49202">
        <ele>917</ele>
        <time>2009-11-23T07:24:21Z</time>
      </trkpt>
      <trkpt lat="44.56786" lon="6.49133">
        <ele>927</ele>
        <time>2009-11-23T07:24:21Z</time>
      </trkpt>
      <trkpt lat="44.56809" lon="6.49068">
        <ele>934</ele>
        <time>2009-11-23T07:24:21Z</time>
      </trkpt>
      <trkpt lat="44.56755" lon="6.48995">
        <ele>932</ele>
        <time>2009-11-23T07:24:21Z</time>
      </trkpt>
      <trkpt lat="44.56706" lon="6.48871">
        <ele>940</ele>
        <time>2009-11-23T07:24:21Z</time>
      </trkpt>
      <trkpt lat="44.56657" lon="6.48792">
        <ele>945</ele>
        <time>2009-11-23T07:24:21Z</time>
      </trkpt>
      <trkpt lat="44.56659" lon="6.48745">
        <ele>953</ele>
        <time>2009-11-23T07:24:21Z</time>
      </trkpt>
      <trkpt lat="44.56619" lon="6.48676">
        <ele>957</ele>
        <time>2009-11-23T07:24:21Z</time>
      </trkpt>
      <trkpt lat="44.56601" lon="6.48609">
        <ele>961</ele>
        <time>2009-11-23T07:24:21Z</time>
      </trkpt>
      <trkpt lat="44.56595" lon="6.48533">
        <ele>969</ele>
        <time>2009-11-23T07:24:21Z</time>
      </trkpt>
      <trkpt lat="44.56534" lon="6.48352">
        <ele>974</ele>
        <time>2009-11-23T07:24:21Z</time>
      </trkpt>
      <trkpt lat="44.56601" lon="6.48316">
        <ele>985</ele>
        <time>2009-11-23T07:24:21Z</time>
      </trkpt>
      <trkpt lat="44.56696" lon="6.48298">
        <ele>1001</ele>
        <time>2009-11-23T07:24:21Z</time>
      </trkpt>
      <trkpt lat="44.56797" lon="6.48321">
        <ele>1013</ele>
        <time>2009-11-23T07:24:21Z</time>
      </trkpt>
      <trkpt lat="44.5687" lon="6.48405">
        <ele>1019</ele>
        <time>2009-11-23T07:24:21Z</time>
      </trkpt>
      <trkpt lat="44.56909" lon="6.48496">
        <ele>1026</ele>
        <time>2009-11-23T07:24:21Z</time>
      </trkpt>
      <trkpt lat="44.56915" lon="6.48594">
        <ele>1029</ele>
        <time>2009-11-23T07:24:21Z</time>
      </trkpt>
      <trkpt lat="44.56973" lon="6.48661">
        <ele>1032</ele>
        <time>2009-11-23T07:24:21Z</time>
      </trkpt>
      <trkpt lat="44.57024" lon="6.48681">
        <ele>1042</ele>
        <time>2009-11-23T07:24:21Z</time>
      </trkpt>
      <trkpt lat="44.5698" lon="6.48593">
        <ele>1050</ele>
        <time>2009-11-23T07:24:21Z</time>
      </trkpt>
      <trkpt lat="44.57113" lon="6.48697">
        <ele>1073</ele>
        <time>2009-11-23T07:24:21Z</time>
      </trkpt>
      <trkpt lat="44.57176" lon="6.48812">
        <ele>1079</ele>
        <time>2009-11-23T07:24:21Z</time>
      </trkpt>
      <trkpt lat="44.57176" lon="6.48774">
        <ele>1086</ele>
        <time>2009-11-23T07:24:21Z</time>
      </trkpt>
      <trkpt lat="44.57147" lon="6.48693">
        <ele>1087</ele>
        <time>2009-11-23T07:24:21Z</time>
      </trkpt>
      <trkpt lat="44.57115" lon="6.4859">
        <ele>1092</ele>
        <time>2009-11-23T07:24:21Z</time>
      </trkpt>
      <trkpt lat="44.57131" lon="6.48516">
        <ele>1105</ele>
        <time>2009-11-23T07:24:21Z</time>
      </trkpt>
      <trkpt lat="44.57124" lon="6.4842">
        <ele>1107</ele>
        <time>2009-11-23T07:24:21Z</time>
      </trkpt>
      <trkpt lat="44.57132" lon="6.48386">
        <ele>1110</ele>
        <time>2009-11-23T07:24:21Z</time>
      </trkpt>
      <trkpt lat="44.57117" lon="6.48291">
        <ele>1113</ele>
        <time>2009-11-23T07:24:21Z</time>
      </trkpt>
      <trkpt lat="44.5711" lon="6.48186">
        <ele>1118</ele>
        <time>2009-11-23T07:24:21Z</time>
      </trkpt>
      <trkpt lat="44.57129" lon="6.48103">
        <ele>1121</ele>
        <time>2009-11-23T07:24:21Z</time>
      </trkpt>
      <trkpt lat="44.57193" lon="6.48026">
        <ele>1126</ele>
        <time>2009-11-23T07:24:21Z</time>
      </trkpt>
      <trkpt lat="44.57269" lon="6.48019">
        <ele>1140</ele>
        <time>2009-11-23T07:24:21Z</time>
      </trkpt>
      <trkpt lat="44.57297" lon="6.47992">
        <ele>1142</ele>
        <time>2009-11-23T07:24:21Z</time>
      </trkpt>
      <trkpt lat="44.57329" lon="6.47812">
        <ele>1143</ele>
        <time>2009-11-23T07:24:21Z</time>
      </trkpt>
      <trkpt lat="44.57389" lon="6.47942">
        <ele>1162</ele>
        <time>2009-11-23T07:24:21Z</time>
      </trkpt>
      <trkpt lat="44.57383" lon="6.47999">
        <ele>1162</ele>
        <time>2009-11-23T07:24:21Z</time>
      </trkpt>
      <trkpt lat="44.574" lon="6.48085">
        <ele>1163</ele>
        <time>2009-11-23T07:24:21Z</time>
      </trkpt>
      <trkpt lat="44.57415" lon="6.48051">
        <ele>1169</ele>
        <time>2009-11-23T07:24:21Z</time>
      </trkpt>
      <trkpt lat="44.57482" lon="6.4794">
        <ele>1196</ele>
        <time>2009-11-23T07:24:21Z</time>
      </trkpt>
      <trkpt lat="44.57464" lon="6.47863">
        <ele>1187</ele>
        <time>2009-11-23T07:24:21Z</time>
      </trkpt>
      <trkpt lat="44.57491" lon="6.47767">
        <ele>1195</ele>
        <time>2009-11-23T07:24:21Z</time>
      </trkpt>
      <trkpt lat="44.57487" lon="6.47672">
        <ele>1201</ele>
        <time>2009-11-23T07:24:21Z</time>
      </trkpt>
      <trkpt lat="44.57515" lon="6.47662">
        <ele>1211</ele>
        <time>2009-11-23T07:24:21Z</time>
      </trkpt>
      <trkpt lat="44.57551" lon="6.47721">
        <ele>1218</ele>
        <time>2009-11-23T07:24:21Z</time>
      </trkpt>
      <trkpt lat="44.57558" lon="6.47769">
        <ele>1219</ele>
        <time>2009-11-23T07:24:21Z</time>
      </trkpt>
      <trkpt lat="44.57552" lon="6.4786">
        <ele>1215</ele>
        <time>2009-11-23T07:24:21Z</time>
      </trkpt>
      <trkpt lat="44.57575" lon="6.47915">
        <ele>1218</ele>
        <time>2009-11-23T07:24:21Z</time>
      </trkpt>
      <trkpt lat="44.5765" lon="6.47946">
        <ele>1222</ele>
        <time>2009-11-23T07:24:21Z</time>
      </trkpt>
      <trkpt lat="44.57662" lon="6.47931">
        <ele>1226</ele>
        <time>2009-11-23T07:24:21Z</time>
      </trkpt>
      <trkpt lat="44.57616" lon="6.47909">
        <ele>1224</ele>
        <time>2009-11-23T07:24:21Z</time>
      </trkpt>
      <trkpt lat="44.57624" lon="6.47878">
        <ele>1228</ele>
        <time>2009-11-23T07:24:21Z</time>
      </trkpt>
      <trkpt lat="44.5769" lon="6.47854">
        <ele>1238</ele>
        <time>2009-11-23T07:24:21Z</time>
      </trkpt>
      <trkpt lat="44.57687" lon="6.47756">
        <ele>1247</ele>
        <time>2009-11-23T07:24:21Z</time>
      </trkpt>
      <trkpt lat="44.57704" lon="6.47732">
        <ele>1250</ele>
        <time>2009-11-23T07:24:21Z</time>
      </trkpt>
      <trkpt lat="44.57734" lon="6.47694">
        <ele>1256</ele>
        <time>2009-11-23T07:24:21Z</time>
      </trkpt>
      <trkpt lat="44.5776" lon="6.47658">
        <ele>1265</ele>
        <time>2009-11-23T07:24:21Z</time>
      </trkpt>
      <trkpt lat="44.5776" lon="6.47601">
        <ele>1272</ele>
        <time>2009-11-23T07:24:21Z</time>
      </trkpt>
      <trkpt lat="44.57762" lon="6.47567">
        <ele>1275</ele>
        <time>2009-11-23T07:24:21Z</time>
      </trkpt>
      <trkpt lat="44.57757" lon="6.47503">
        <ele>1277</ele>
        <time>2009-11-23T07:24:21Z</time>
      </trkpt>
      <trkpt lat="44.57761" lon="6.47463">
        <ele>1279</ele>
        <time>2009-11-23T07:24:21Z</time>
      </trkpt>
      <trkpt lat="44.57761" lon="6.47403">
        <ele>1278</ele>
        <time>2009-11-23T07:24:21Z</time>
      </trkpt>
      <trkpt lat="44.57785" lon="6.47367">
        <ele>1285</ele>
        <time>2009-11-23T07:24:21Z</time>
      </trkpt>
      <trkpt lat="44.57822" lon="6.47344">
        <ele>1290</ele>
        <time>2009-11-23T07:24:21Z</time>
      </trkpt>
      <trkpt lat="44.57853" lon="6.47302">
        <ele>1291</ele>
        <time>2009-11-23T07:24:21Z</time>
      </trkpt>
      <trkpt lat="44.57869" lon="6.47272">
        <ele>1292</ele>
        <time>2009-11-23T07:24:21Z</time>
      </trkpt>
      <trkpt lat="44.57902" lon="6.47237">
        <ele>1298</ele>
        <time>2009-11-23T07:24:21Z</time>
      </trkpt>
      <trkpt lat="44.5787" lon="6.47197">
        <ele>1289</ele>
        <time>2009-11-23T07:24:21Z</time>
      </trkpt>
      <trkpt lat="44.57826" lon="6.47181">
        <ele>1285</ele>
        <time>2009-11-23T07:24:21Z</time>
      </trkpt>
      <trkpt lat="44.57807" lon="6.47148">
        <ele>1290</ele>
        <time>2009-11-23T07:24:21Z</time>
      </trkpt>
      <trkpt lat="44.57779" lon="6.47099">
        <ele>1299</ele>
        <time>2009-11-23T07:24:21Z</time>
      </trkpt>
      <trkpt lat="44.57729" lon="6.4706">
        <ele>1297</ele>
        <time>2009-11-23T07:24:21Z</time>
      </trkpt>
      <trkpt lat="44.57706" lon="6.47018">
        <ele>1303</ele>
        <time>2009-11-23T07:24:21Z</time>
      </trkpt>
      <trkpt lat="44.57699" lon="6.46948">
        <ele>1314</ele>
        <time>2009-11-23T07:24:21Z</time>
      </trkpt>
      <trkpt lat="44.577" lon="6.46882">
        <ele>1319</ele>
        <time>2009-11-23T07:24:21Z</time>
      </trkpt>
      <trkpt lat="44.57671" lon="6.46851">
        <ele>1317</ele>
        <time>2009-11-23T07:24:21Z</time>
      </trkpt>
      <trkpt lat="44.57642" lon="6.46799">
        <ele>1319</ele>
        <time>2009-11-23T07:24:21Z</time>
      </trkpt>
      <trkpt lat="44.5767" lon="6.46709">
        <ele>1332</ele>
        <time>2009-11-23T07:24:21Z</time>
      </trkpt>
      <trkpt lat="44.57566" lon="6.46547">
        <ele>1363</ele>
        <time>2009-11-23T07:24:21Z</time>
      </trkpt>
      <trkpt lat="44.5753" lon="6.46548">
        <ele>1362</ele>
        <time>2009-11-23T07:24:21Z</time>
      </trkpt>
      <trkpt lat="44.57515" lon="6.46465">
        <ele>1386</ele>
        <time>2009-11-23T07:24:21Z</time>
      </trkpt>
      <trkpt lat="44.57499" lon="6.46344">
        <ele>1410</ele>
        <time>2009-11-23T07:24:21Z</time>
      </trkpt>
      <trkpt lat="44.57504" lon="6.46266">
        <ele>1426</ele>
        <time>2009-11-23T07:24:21Z</time>
      </trkpt>
      <trkpt lat="44.57478" lon="6.46185">
        <ele>1430</ele>
        <time>2009-11-23T07:24:21Z</time>
      </trkpt>
      <trkpt lat="44.5745" lon="6.46104">
        <ele>1441</ele>
        <time>2009-11-23T07:24:21Z</time>
      </trkpt>
      <trkpt lat="44.57412" lon="6.46086">
        <ele>1443</ele>
        <time>2009-11-23T07:24:21Z</time>
      </trkpt>
      <trkpt lat="44.57323" lon="6.4595">
        <ele>1447</ele>
        <time>2009-11-23T07:24:21Z</time>
      </trkpt>
      <trkpt lat="44.57354" lon="6.45943">
        <ele>1458</ele>
        <time>2009-11-23T07:24:21Z</time>
      </trkpt>
      <trkpt lat="44.57341" lon="6.45825">
        <ele>1473</ele>
        <time>2009-11-23T07:24:21Z</time>
      </trkpt>
      <trkpt lat="44.57286" lon="6.45771">
        <ele>1471</ele>
        <time>2009-11-23T07:24:21Z</time>
      </trkpt>
      <trkpt lat="44.57254" lon="6.4568">
        <ele>1476</ele>
        <time>2009-11-23T07:24:21Z</time>
      </trkpt>
      <trkpt lat="44.57193" lon="6.45625">
        <ele>1463</ele>
        <time>2009-11-23T07:24:21Z</time>
      </trkpt>
      <trkpt lat="44.57178" lon="6.45609">
        <ele>1461</ele>
        <time>2009-11-23T07:24:21Z</time>
      </trkpt>
      <trkpt lat="44.57157" lon="6.4555">
        <ele>1467</ele>
        <time>2009-11-23T07:24:21Z</time>
      </trkpt>
      <trkpt lat="44.57136" lon="6.45508">
        <ele>1466</ele>
        <time>2009-11-23T07:24:21Z</time>
      </trkpt>
      <trkpt lat="44.57098" lon="6.45455">
        <ele>1460</ele>
        <time>2009-11-23T07:24:21Z</time>
      </trkpt>
      <trkpt lat="44.57073" lon="6.4533">
        <ele>1464</ele>
        <time>2009-11-23T07:24:21Z</time>
      </trkpt>
      <trkpt lat="44.57054" lon="6.45303">
        <ele>1455</ele>
        <time>2009-11-23T07:24:21Z</time>
      </trkpt>
      <trkpt lat="44.5702" lon="6.45263">
        <ele>1444</ele>
        <time>2009-11-23T07:24:21Z</time>
      </trkpt>
      <trkpt lat="44.57006" lon="6.45205">
        <ele>1448</ele>
        <time>2009-11-23T07:24:21Z</time>
      </trkpt>
      <trkpt lat="44.56938" lon="6.451">
        <ele>1435</ele>
        <time>2009-11-23T07:24:21Z</time>
      </trkpt>
      <trkpt lat="44.56898" lon="6.4509">
        <ele>1426</ele>
        <time>2009-11-23T07:24:21Z</time>
      </trkpt>
      <trkpt lat="44.56884" lon="6.45036">
        <ele>1429</ele>
        <time>2009-11-23T07:24:21Z</time>
      </trkpt>
      <trkpt lat="44.56859" lon="6.44993">
        <ele>1426</ele>
        <time>2009-11-23T07:24:21Z</time>
      </trkpt>
      <trkpt lat="44.56842" lon="6.4496">
        <ele>1427</ele>
        <time>2009-11-23T07:24:21Z</time>
      </trkpt>
      <trkpt lat="44.56807" lon="6.44929">
        <ele>1421</ele>
        <time>2009-11-23T07:24:21Z</time>
      </trkpt>
      <trkpt lat="44.56784" lon="6.4489">
        <ele>1420</ele>
        <time>2009-11-23T07:24:21Z</time>
      </trkpt>
      <trkpt lat="44.56757" lon="6.44875">
        <ele>1416</ele>
        <time>2009-11-23T07:24:21Z</time>
      </trkpt>
      <trkpt lat="44.56751" lon="6.44809">
        <ele>1423</ele>
        <time>2009-11-23T07:24:21Z</time>
      </trkpt>
      <trkpt lat="44.56715" lon="6.44734">
        <ele>1427</ele>
        <time>2009-11-23T07:24:21Z</time>
      </trkpt>
      <trkpt lat="44.56718" lon="6.44706">
        <ele>1432</ele>
        <time>2009-11-23T07:24:21Z</time>
      </trkpt>
      <trkpt lat="44.56748" lon="6.44708">
        <ele>1437</ele>
        <time>2009-11-23T07:24:21Z</time>
      </trkpt>
      <trkpt lat="44.56781" lon="6.44713">
        <ele>1445</ele>
        <time>2009-11-23T07:24:21Z</time>
      </trkpt>
      <trkpt lat="44.56778" lon="6.44672">
        <ele>1450</ele>
        <time>2009-11-23T07:24:21Z</time>
      </trkpt>
      <trkpt lat="44.56756" lon="6.44604">
        <ele>1457</ele>
        <time>2009-11-23T07:24:21Z</time>
      </trkpt>
      <trkpt lat="44.56713" lon="6.44557">
        <ele>1458</ele>
        <time>2009-11-23T07:24:21Z</time>
      </trkpt>
      <trkpt lat="44.56698" lon="6.4454">
        <ele>1460</ele>
        <time>2009-11-23T07:24:21Z</time>
      </trkpt>
      <trkpt lat="44.56697" lon="6.44493">
        <ele>1475</ele>
        <time>2009-11-23T07:24:21Z</time>
      </trkpt>
      <trkpt lat="44.5667" lon="6.44431">
        <ele>1479</ele>
        <time>2009-11-23T07:24:21Z</time>
      </trkpt>
      <trkpt lat="44.56663" lon="6.44377">
        <ele>1486</ele>
        <time>2009-11-23T07:24:21Z</time>
      </trkpt>
      <trkpt lat="44.56672" lon="6.44334">
        <ele>1490</ele>
        <time>2009-11-23T07:24:21Z</time>
      </trkpt>
      <trkpt lat="44.56681" lon="6.44316">
        <ele>1493</ele>
        <time>2009-11-23T07:24:21Z</time>
      </trkpt>
      <trkpt lat="44.56718" lon="6.4435">
        <ele>1496</ele>
        <time>2009-11-23T07:24:21Z</time>
      </trkpt>
      <trkpt lat="44.5676" lon="6.44378">
        <ele>1503</ele>
        <time>2009-11-23T07:24:21Z</time>
      </trkpt>
      <trkpt lat="44.56795" lon="6.44415">
        <ele>1506</ele>
        <time>2009-11-23T07:24:21Z</time>
      </trkpt>
      <trkpt lat="44.56836" lon="6.44459">
        <ele>1509</ele>
        <time>2009-11-23T07:24:21Z</time>
      </trkpt>
      <trkpt lat="44.56837" lon="6.44431">
        <ele>1514</ele>
        <time>2009-11-23T07:24:21Z</time>
      </trkpt>
      <trkpt lat="44.5682" lon="6.44389">
        <ele>1518</ele>
        <time>2009-11-23T07:24:21Z</time>
      </trkpt>
      <trkpt lat="44.56836" lon="6.44283">
        <ele>1534</ele>
        <time>2009-11-23T07:24:21Z</time>
      </trkpt>
      <trkpt lat="44.56831" lon="6.44232">
        <ele>1536</ele>
        <time>2009-11-23T07:24:21Z</time>
      </trkpt>
      <trkpt lat="44.56806" lon="6.44174">
        <ele>1536</ele>
        <time>2009-11-23T07:24:21Z</time>
      </trkpt>
      <trkpt lat="44.56783" lon="6.44052">
        <ele>1548</ele>
        <time>2009-11-23T07:24:21Z</time>
      </trkpt>
      <trkpt lat="44.56786" lon="6.43974">
        <ele>1556</ele>
        <time>2009-11-23T07:24:21Z</time>
      </trkpt>
      <trkpt lat="44.56819" lon="6.43875">
        <ele>1570</ele>
        <time>2009-11-23T07:24:21Z</time>
      </trkpt>
      <trkpt lat="44.56831" lon="6.43741">
        <ele>1581</ele>
        <time>2009-11-23T07:24:21Z</time>
      </trkpt>
      <trkpt lat="44.56844" lon="6.43625">
        <ele>1592</ele>
        <time>2009-11-23T07:24:21Z</time>
      </trkpt>
      <trkpt lat="44.56861" lon="6.43494">
        <ele>1600</ele>
        <time>2009-11-23T07:24:21Z</time>
      </trkpt>
      <trkpt lat="44.56875" lon="6.43413">
        <ele>1606</ele>
        <time>2009-11-23T07:24:21Z</time>
      </trkpt>
      <trkpt lat="44.56876" lon="6.43379">
        <ele>1606</ele>
        <time>2009-11-23T07:24:21Z</time>
      </trkpt>
      <trkpt lat="44.56859" lon="6.43296">
        <ele>1602</ele>
        <time>2009-11-23T07:24:21Z</time>
      </trkpt>
      <trkpt lat="44.5688" lon="6.43329">
        <ele>1608</ele>
        <time>2009-11-23T07:24:21Z</time>
      </trkpt>
      <trkpt lat="44.56906" lon="6.43371">
        <ele>1621</ele>
        <time>2009-11-23T07:24:21Z</time>
      </trkpt>
      <trkpt lat="44.56915" lon="6.43432">
        <ele>1632</ele>
        <time>2009-11-23T07:24:21Z</time>
      </trkpt>
      <trkpt lat="44.56912" lon="6.43504">
        <ele>1633</ele>
        <time>2009-11-23T07:24:21Z</time>
      </trkpt>
      <trkpt lat="44.56924" lon="6.43599">
        <ele>1635</ele>
        <time>2009-11-23T07:24:21Z</time>
      </trkpt>
      <trkpt lat="44.56939" lon="6.43629">
        <ele>1643</ele>
        <time>2009-11-23T07:24:21Z</time>
      </trkpt>
      <trkpt lat="44.56939" lon="6.43692">
        <ele>1642</ele>
        <time>2009-11-23T07:24:21Z</time>
      </trkpt>
      <trkpt lat="44.56944" lon="6.43736">
        <ele>1638</ele>
        <time>2009-11-23T07:24:21Z</time>
      </trkpt>
      <trkpt lat="44.56967" lon="6.43776">
        <ele>1645</ele>
        <time>2009-11-23T07:24:21Z</time>
      </trkpt>
      <trkpt lat="44.56988" lon="6.43821">
        <ele>1653</ele>
        <time>2009-11-23T07:24:21Z</time>
      </trkpt>
      <trkpt lat="44.57006" lon="6.43886">
        <ele>1657</ele>
        <time>2009-11-23T07:24:21Z</time>
      </trkpt>
      <trkpt lat="44.57021" lon="6.43953">
        <ele>1655</ele>
        <time>2009-11-23T07:24:21Z</time>
      </trkpt>
      <trkpt lat="44.57059" lon="6.44041">
        <ele>1655</ele>
        <time>2009-11-23T07:24:21Z</time>
      </trkpt>
      <trkpt lat="44.57065" lon="6.43997">
        <ele>1664</ele>
        <time>2009-11-23T07:24:21Z</time>
      </trkpt>
      <trkpt lat="44.5704" lon="6.43942">
        <ele>1664</ele>
        <time>2009-11-23T07:24:21Z</time>
      </trkpt>
      <trkpt lat="44.57025" lon="6.43859">
        <ele>1668</ele>
        <time>2009-11-23T07:24:21Z</time>
      </trkpt>
      <trkpt lat="44.5702" lon="6.43808">
        <ele>1672</ele>
        <time>2009-11-23T07:24:21Z</time>
      </trkpt>
      <trkpt lat="44.57004" lon="6.43741">
        <ele>1672</ele>
        <time>2009-11-23T07:24:21Z</time>
      </trkpt>
      <trkpt lat="44.57002" lon="6.43681">
        <ele>1675</ele>
        <time>2009-11-23T07:24:21Z</time>
      </trkpt>
      <trkpt lat="44.57006" lon="6.43634">
        <ele>1680</ele>
        <time>2009-11-23T07:24:21Z</time>
      </trkpt>
      <trkpt lat="44.56979" lon="6.43585">
        <ele>1670</ele>
        <time>2009-11-23T07:24:21Z</time>
      </trkpt>
      <trkpt lat="44.57052" lon="6.43118">
        <ele>1691</ele>
        <time>2009-11-23T07:24:21Z</time>
      </trkpt>
      <trkpt lat="44.57147" lon="6.42945">
        <ele>1690</ele>
        <time>2009-11-23T07:24:21Z</time>
      </trkpt>
      <trkpt lat="44.57269" lon="6.42935">
        <ele>1704</ele>
        <time>2009-11-23T07:24:21Z</time>
      </trkpt>
      <trkpt lat="44.57284" lon="6.42882">
        <ele>1698</ele>
        <time>2009-11-23T07:24:21Z</time>
      </trkpt>
      <trkpt lat="44.57297" lon="6.42789">
        <ele>1706</ele>
        <time>2009-11-23T07:24:21Z</time>
      </trkpt>
      <trkpt lat="44.57294" lon="6.42669">
        <ele>1677</ele>
        <time>2009-11-23T07:24:21Z</time>
      </trkpt>
      <trkpt lat="44.57362" lon="6.42488">
        <ele>1678</ele>
        <time>2009-11-23T07:24:21Z</time>
      </trkpt>
      <trkpt lat="44.57353" lon="6.42424">
        <ele>1670</ele>
        <time>2009-11-23T07:24:21Z</time>
      </trkpt>
      <trkpt lat="44.57335" lon="6.42354">
        <ele>1663</ele>
        <time>2009-11-23T07:24:21Z</time>
      </trkpt>
      <trkpt lat="44.57317" lon="6.42236">
        <ele>1654</ele>
        <time>2009-11-23T07:24:21Z</time>
      </trkpt>
      <trkpt lat="44.57341" lon="6.42134">
        <ele>1654</ele>
        <time>2009-11-23T07:24:21Z</time>
      </trkpt>
      <trkpt lat="44.57386" lon="6.42024">
        <ele>1642</ele>
        <time>2009-11-23T07:24:21Z</time>
      </trkpt>
      <trkpt lat="44.57435" lon="6.41974">
        <ele>1635</ele>
        <time>2009-11-23T07:24:21Z</time>
      </trkpt>
      <trkpt lat="44.57491" lon="6.41918">
        <ele>1628</ele>
        <time>2009-11-23T07:24:21Z</time>
      </trkpt>
      <trkpt lat="44.575" lon="6.41865">
        <ele>1620</ele>
        <time>2009-11-23T07:24:21Z</time>
      </trkpt>
      <trkpt lat="44.57549" lon="6.41809">
        <ele>1620</ele>
        <time>2009-11-23T07:24:21Z</time>
      </trkpt>
      <trkpt lat="44.57606" lon="6.4174">
        <ele>1609</ele>
        <time>2009-11-23T07:24:21Z</time>
      </trkpt>
      <trkpt lat="44.57537" lon="6.41761">
        <ele>1605</ele>
        <time>2009-11-23T07:24:21Z</time>
      </trkpt>
      <trkpt lat="44.57483" lon="6.41776">
        <ele>1600</ele>
        <time>2009-11-23T07:24:21Z</time>
      </trkpt>
      <trkpt lat="44.57409" lon="6.41817">
        <ele>1594</ele>
        <time>2009-11-23T07:24:21Z</time>
      </trkpt>
      <trkpt lat="44.57439" lon="6.41747">
        <ele>1585</ele>
        <time>2009-11-23T07:24:21Z</time>
      </trkpt>
      <trkpt lat="44.57505" lon="6.41714">
        <ele>1587</ele>
        <time>2009-11-23T07:24:21Z</time>
      </trkpt>
      <trkpt lat="44.57561" lon="6.4168">
        <ele>1585</ele>
        <time>2009-11-23T07:24:21Z</time>
      </trkpt>
      <trkpt lat="44.57625" lon="6.41638">
        <ele>1580</ele>
        <time>2009-11-23T07:24:21Z</time>
      </trkpt>
      <trkpt lat="44.57728" lon="6.41604">
        <ele>1562</ele>
        <time>2009-11-23T07:24:21Z</time>
      </trkpt>
      <trkpt lat="44.57798" lon="6.41644">
        <ele>1586</ele>
        <time>2009-11-23T07:24:21Z</time>
      </trkpt>
      <trkpt lat="44.57859" lon="6.41649">
        <ele>1584</ele>
        <time>2009-11-23T07:24:21Z</time>
      </trkpt>
      <trkpt lat="44.57908" lon="6.41674">
        <ele>1586</ele>
        <time>2009-11-23T07:24:21Z</time>
      </trkpt>
      <trkpt lat="44.57938" lon="6.41692">
        <ele>1594</ele>
        <time>2009-11-23T07:24:21Z</time>
      </trkpt>
      <trkpt lat="44.5799" lon="6.41705">
        <ele>1587</ele>
        <time>2009-11-23T07:24:21Z</time>
      </trkpt>
      <trkpt lat="44.58053" lon="6.41767">
        <ele>1602</ele>
        <time>2009-11-23T07:24:21Z</time>
      </trkpt>
      <trkpt lat="44.58086" lon="6.41728">
        <ele>1601</ele>
        <time>2009-11-23T07:24:21Z</time>
      </trkpt>
      <trkpt lat="44.58095" lon="6.41672">
        <ele>1607</ele>
        <time>2009-11-23T07:24:21Z</time>
      </trkpt>
      <trkpt lat="44.58089" lon="6.4165">
        <ele>1604</ele>
        <time>2009-11-23T07:24:21Z</time>
      </trkpt>
      <trkpt lat="44.58106" lon="6.41619">
        <ele>1614</ele>
        <time>2009-11-23T07:24:21Z</time>
      </trkpt>
      <trkpt lat="44.58109" lon="6.41575">
        <ele>1611</ele>
        <time>2009-11-23T07:24:21Z</time>
      </trkpt>
      <trkpt lat="44.58139" lon="6.41518">
        <ele>1618</ele>
        <time>2009-11-23T07:24:21Z</time>
      </trkpt>
      <trkpt lat="44.58171" lon="6.41444">
        <ele>1631</ele>
        <time>2009-11-23T07:24:21Z</time>
      </trkpt>
      <trkpt lat="44.58197" lon="6.41387">
        <ele>1641</ele>
        <time>2009-11-23T07:24:21Z</time>
      </trkpt>
      <trkpt lat="44.58215" lon="6.41328">
        <ele>1643</ele>
        <time>2009-11-23T07:24:21Z</time>
      </trkpt>
      <trkpt lat="44.58219" lon="6.41297">
        <ele>1641</ele>
        <time>2009-11-23T07:24:21Z</time>
      </trkpt>
      <trkpt lat="44.58245" lon="6.41255">
        <ele>1643</ele>
        <time>2009-11-23T07:24:21Z</time>
      </trkpt>
      <trkpt lat="44.58271" lon="6.41212">
        <ele>1645</ele>
        <time>2009-11-23T07:24:21Z</time>
      </trkpt>
      <trkpt lat="44.58282" lon="6.41166">
        <ele>1638</ele>
        <time>2009-11-23T07:24:21Z</time>
      </trkpt>
      <trkpt lat="44.58294" lon="6.41151">
        <ele>1635</ele>
        <time>2009-11-23T07:24:21Z</time>
      </trkpt>
      <trkpt lat="44.5833" lon="6.4116">
        <ele>1632</ele>
        <time>2009-11-23T07:24:21Z</time>
      </trkpt>
      <trkpt lat="44.58349" lon="6.41186">
        <ele>1633</ele>
        <time>2009-11-23T07:24:21Z</time>
      </trkpt>
      <trkpt lat="44.5836" lon="6.41244">
        <ele>1642</ele>
        <time>2009-11-23T07:24:21Z</time>
      </trkpt>
      <trkpt lat="44.58382" lon="6.41274">
        <ele>1649</ele>
        <time>2009-11-23T07:24:21Z</time>
      </trkpt>
      <trkpt lat="44.58475" lon="6.41252">
        <ele>1639</ele>
        <time>2009-11-23T07:24:21Z</time>
      </trkpt>
      <trkpt lat="44.58513" lon="6.41309">
        <ele>1652</ele>
        <time>2009-11-23T07:24:21Z</time>
      </trkpt>
      <trkpt lat="44.58566" lon="6.41357">
        <ele>1651</ele>
        <time>2009-11-23T07:24:21Z</time>
      </trkpt>
      <trkpt lat="44.58611" lon="6.41395">
        <ele>1652</ele>
        <time>2009-11-23T07:24:21Z</time>
      </trkpt>
      <trkpt lat="44.58665" lon="6.41411">
        <ele>1660</ele>
        <time>2009-11-23T07:24:21Z</time>
      </trkpt>
      <trkpt lat="44.5869" lon="6.41397">
        <ele>1666</ele>
        <time>2009-11-23T07:24:21Z</time>
      </trkpt>
      <trkpt lat="44.58703" lon="6.41354">
        <ele>1660</ele>
        <time>2009-11-23T07:24:21Z</time>
      </trkpt>
      <trkpt lat="44.5874" lon="6.41331">
        <ele>1665</ele>
        <time>2009-11-23T07:24:21Z</time>
      </trkpt>
      <trkpt lat="44.58814" lon="6.41274">
        <ele>1664</ele>
        <time>2009-11-23T07:24:21Z</time>
      </trkpt>
      <trkpt lat="44.58832" lon="6.41263">
        <ele>1662</ele>
        <time>2009-11-23T07:24:21Z</time>
      </trkpt>
      <trkpt lat="44.58826" lon="6.41196">
        <ele>1649</ele>
        <time>2009-11-23T07:24:21Z</time>
      </trkpt>
      <trkpt lat="44.58828" lon="6.41136">
        <ele>1645</ele>
        <time>2009-11-23T07:24:21Z</time>
      </trkpt>
      <trkpt lat="44.58845" lon="6.41103">
        <ele>1643</ele>
        <time>2009-11-23T07:24:21Z</time>
      </trkpt>
      <trkpt lat="44.58876" lon="6.41073">
        <ele>1639</ele>
        <time>2009-11-23T07:24:21Z</time>
      </trkpt>
      <trkpt lat="44.58938" lon="6.4104">
        <ele>1638</ele>
        <time>2009-11-23T07:24:21Z</time>
      </trkpt>
      <trkpt lat="44.59005" lon="6.40995">
        <ele>1624</ele>
        <time>2009-11-23T07:24:21Z</time>
      </trkpt>
      <trkpt lat="44.59099" lon="6.40923">
        <ele>1590</ele>
        <time>2009-11-23T07:24:21Z</time>
      </trkpt>
      <trkpt lat="44.5909" lon="6.40881">
        <ele>1572</ele>
        <time>2009-11-23T07:24:21Z</time>
      </trkpt>
      <trkpt lat="44.59053" lon="6.40891">
        <ele>1572</ele>
        <time>2009-11-23T07:24:21Z</time>
      </trkpt>
      <trkpt lat="44.59025" lon="6.40864">
        <ele>1559</ele>
        <time>2009-11-23T07:24:21Z</time>
      </trkpt>
      <trkpt lat="44.59037" lon="6.40843">
        <ele>1552</ele>
        <time>2009-11-23T07:24:21Z</time>
      </trkpt>
      <trkpt lat="44.59013" lon="6.40822">
        <ele>1543</ele>
        <time>2009-11-23T07:24:21Z</time>
      </trkpt>
      <trkpt lat="44.59103" lon="6.40706">
        <ele>1512</ele>
        <time>2009-11-23T07:24:21Z</time>
      </trkpt>
      <trkpt lat="44.59155" lon="6.40706">
        <ele>1528</ele>
        <time>2009-11-23T07:24:21Z</time>
      </trkpt>
      <trkpt lat="44.59187" lon="6.40623">
        <ele>1520</ele>
        <time>2009-11-23T07:24:21Z</time>
      </trkpt>
      <trkpt lat="44.59239" lon="6.40571">
        <ele>1511</ele>
        <time>2009-11-23T07:24:21Z</time>
      </trkpt>
      <trkpt lat="44.59293" lon="6.40508">
        <ele>1487</ele>
        <time>2009-11-23T07:24:21Z</time>
      </trkpt>
      <trkpt lat="44.59308" lon="6.40468">
        <ele>1474</ele>
        <time>2009-11-23T07:24:21Z</time>
      </trkpt>
      <trkpt lat="44.59235" lon="6.40428">
        <ele>1458</ele>
        <time>2009-11-23T07:24:21Z</time>
      </trkpt>
      <trkpt lat="44.59186" lon="6.404">
        <ele>1443</ele>
        <time>2009-11-23T07:24:21Z</time>
      </trkpt>
      <trkpt lat="44.59158" lon="6.40372">
        <ele>1442</ele>
        <time>2009-11-23T07:24:21Z</time>
      </trkpt>
      <trkpt lat="44.59128" lon="6.40323">
        <ele>1447</ele>
        <time>2009-11-23T07:24:21Z</time>
      </trkpt>
      <trkpt lat="44.59102" lon="6.40246">
        <ele>1454</ele>
        <time>2009-11-23T07:24:21Z</time>
      </trkpt>
      <trkpt lat="44.59071" lon="6.40224">
        <ele>1440</ele>
        <time>2009-11-23T07:24:21Z</time>
      </trkpt>
      <trkpt lat="44.59039" lon="6.40187">
        <ele>1441</ele>
        <time>2009-11-23T07:24:21Z</time>
      </trkpt>
      <trkpt lat="44.58968" lon="6.40144">
        <ele>1431</ele>
        <time>2009-11-23T07:24:21Z</time>
      </trkpt>
      <trkpt lat="44.58918" lon="6.40103">
        <ele>1429</ele>
        <time>2009-11-23T07:24:21Z</time>
      </trkpt>
      <trkpt lat="44.5891" lon="6.40017">
        <ele>1451</ele>
        <time>2009-11-23T07:24:21Z</time>
      </trkpt>
      <trkpt lat="44.58908" lon="6.39948">
        <ele>1446</ele>
        <time>2009-11-23T07:24:21Z</time>
      </trkpt>
      <trkpt lat="44.58893" lon="6.39919">
        <ele>1437</ele>
        <time>2009-11-23T07:24:21Z</time>
      </trkpt>
      <trkpt lat="44.58867" lon="6.39904">
        <ele>1425</ele>
        <time>2009-11-23T07:24:21Z</time>
      </trkpt>
      <trkpt lat="44.58813" lon="6.399">
        <ele>1412</ele>
        <time>2009-11-23T07:24:21Z</time>
      </trkpt>
      <trkpt lat="44.58783" lon="6.39876">
        <ele>1415</ele>
        <time>2009-11-23T07:24:21Z</time>
      </trkpt>
      <trkpt lat="44.58752" lon="6.39795">
        <ele>1417</ele>
        <time>2009-11-23T07:24:21Z</time>
      </trkpt>
      <trkpt lat="44.58719" lon="6.39714">
        <ele>1409</ele>
        <time>2009-11-23T07:24:21Z</time>
      </trkpt>
      <trkpt lat="44.58698" lon="6.39671">
        <ele>1404</ele>
        <time>2009-11-23T07:24:21Z</time>
      </trkpt>
      <trkpt lat="44.58692" lon="6.39583">
        <ele>1416</ele>
        <time>2009-11-23T07:24:21Z</time>
      </trkpt>
      <trkpt lat="44.58673" lon="6.39543">
        <ele>1403</ele>
        <time>2009-11-23T07:24:21Z</time>
      </trkpt>
      <trkpt lat="44.58648" lon="6.39485">
        <ele>1399</ele>
        <time>2009-11-23T07:24:21Z</time>
      </trkpt>
      <trkpt lat="44.58613" lon="6.39397">
        <ele>1398</ele>
        <time>2009-11-23T07:24:21Z</time>
      </trkpt>
      <trkpt lat="44.58582" lon="6.39389">
        <ele>1381</ele>
        <time>2009-11-23T07:24:21Z</time>
      </trkpt>
      <trkpt lat="44.58561" lon="6.39362">
        <ele>1378</ele>
        <time>2009-11-23T07:24:21Z</time>
      </trkpt>
      <trkpt lat="44.58557" lon="6.39277">
        <ele>1388</ele>
        <time>2009-11-23T07:24:21Z</time>
      </trkpt>
      <trkpt lat="44.58443" lon="6.39193">
        <ele>1340</ele>
        <time>2009-11-23T07:24:21Z</time>
      </trkpt>
      <trkpt lat="44.58415" lon="6.39147">
        <ele>1339</ele>
        <time>2009-11-23T07:24:21Z</time>
      </trkpt>
      <trkpt lat="44.58406" lon="6.39105">
        <ele>1339</ele>
        <time>2009-11-23T07:24:21Z</time>
      </trkpt>
      <trkpt lat="44.58411" lon="6.38904">
        <ele>1335</ele>
        <time>2009-11-23T07:24:21Z</time>
      </trkpt>
      <trkpt lat="44.58418" lon="6.38841">
        <ele>1331</ele>
        <time>2009-11-23T07:24:21Z</time>
      </trkpt>
      <trkpt lat="44.58415" lon="6.38794">
        <ele>1324</ele>
        <time>2009-11-23T07:24:21Z</time>
      </trkpt>
      <trkpt lat="44.58459" lon="6.3875">
        <ele>1327</ele>
        <time>2009-11-23T07:24:21Z</time>
      </trkpt>
      <trkpt lat="44.58461" lon="6.38712">
        <ele>1319</ele>
        <time>2009-11-23T07:24:21Z</time>
      </trkpt>
      <trkpt lat="44.5846" lon="6.38659">
        <ele>1310</ele>
        <time>2009-11-23T07:24:21Z</time>
      </trkpt>
      <trkpt lat="44.58462" lon="6.38618">
        <ele>1305</ele>
        <time>2009-11-23T07:24:21Z</time>
      </trkpt>
      <trkpt lat="44.58477" lon="6.38524">
        <ele>1300</ele>
        <time>2009-11-23T07:24:21Z</time>
      </trkpt>
      <trkpt lat="44.58486" lon="6.38462">
        <ele>1299</ele>
        <time>2009-11-23T07:24:21Z</time>
      </trkpt>
      <trkpt lat="44.58489" lon="6.38437">
        <ele>1297</ele>
        <time>2009-11-23T07:24:21Z</time>
      </trkpt>
      <trkpt lat="44.5853" lon="6.38367">
        <ele>1297</ele>
        <time>2009-11-23T07:24:21Z</time>
      </trkpt>
      <trkpt lat="44.58547" lon="6.38328">
        <ele>1294</ele>
        <time>2009-11-23T07:24:21Z</time>
      </trkpt>
      <trkpt lat="44.5856" lon="6.38272">
        <ele>1290</ele>
        <time>2009-11-23T07:24:21Z</time>
      </trkpt>
      <trkpt lat="44.58581" lon="6.38248">
        <ele>1294</ele>
        <time>2009-11-23T07:24:21Z</time>
      </trkpt>
      <trkpt lat="44.58595" lon="6.38183">
        <ele>1293</ele>
        <time>2009-11-23T07:24:21Z</time>
      </trkpt>
      <trkpt lat="44.5863" lon="6.38097">
        <ele>1312</ele>
        <time>2009-11-23T07:24:21Z</time>
      </trkpt>
      <trkpt lat="44.58649" lon="6.37951">
        <ele>1337</ele>
        <time>2009-11-23T07:24:21Z</time>
      </trkpt>
      <trkpt lat="44.5867" lon="6.37921">
        <ele>1347</ele>
        <time>2009-11-23T07:24:21Z</time>
      </trkpt>
      <trkpt lat="44.58746" lon="6.37876">
        <ele>1373</ele>
        <time>2009-11-23T07:24:21Z</time>
      </trkpt>
      <trkpt lat="44.58752" lon="6.37823">
        <ele>1364</ele>
        <time>2009-11-23T07:24:21Z</time>
      </trkpt>
      <trkpt lat="44.58761" lon="6.37773">
        <ele>1357</ele>
        <time>2009-11-23T07:24:21Z</time>
      </trkpt>
      <trkpt lat="44.58787" lon="6.37737">
        <ele>1352</ele>
        <time>2009-11-23T07:24:21Z</time>
      </trkpt>
      <trkpt lat="44.58846" lon="6.37722">
        <ele>1351</ele>
        <time>2009-11-23T07:24:21Z</time>
      </trkpt>
      <trkpt lat="44.58854" lon="6.37685">
        <ele>1356</ele>
        <time>2009-11-23T07:24:21Z</time>
      </trkpt>
      <trkpt lat="44.58844" lon="6.3765">
        <ele>1353</ele>
        <time>2009-11-23T07:24:21Z</time>
      </trkpt>
      <trkpt lat="44.58837" lon="6.37605">
        <ele>1353</ele>
        <time>2009-11-23T07:24:21Z</time>
      </trkpt>
      <trkpt lat="44.58866" lon="6.37554">
        <ele>1361</ele>
        <time>2009-11-23T07:24:21Z</time>
      </trkpt>
      <trkpt lat="44.58909" lon="6.37491">
        <ele>1364</ele>
        <time>2009-11-23T07:24:21Z</time>
      </trkpt>
      <trkpt lat="44.58952" lon="6.37418">
        <ele>1357</ele>
        <time>2009-11-23T07:24:21Z</time>
      </trkpt>
      <trkpt lat="44.58977" lon="6.37341">
        <ele>1355</ele>
        <time>2009-11-23T07:24:21Z</time>
      </trkpt>
      <trkpt lat="44.59006" lon="6.37287">
        <ele>1357</ele>
        <time>2009-11-23T07:24:21Z</time>
      </trkpt>
      <trkpt lat="44.59025" lon="6.37209">
        <ele>1357</ele>
        <time>2009-11-23T07:24:21Z</time>
      </trkpt>
      <trkpt lat="44.5907" lon="6.3714">
        <ele>1363</ele>
        <time>2009-11-23T07:24:21Z</time>
      </trkpt>
      <trkpt lat="44.59114" lon="6.37105">
        <ele>1368</ele>
        <time>2009-11-23T07:24:21Z</time>
      </trkpt>
      <trkpt lat="44.59128" lon="6.37084">
        <ele>1369</ele>
        <time>2009-11-23T07:24:21Z</time>
      </trkpt>
      <trkpt lat="44.59188" lon="6.37051">
        <ele>1372</ele>
        <time>2009-11-23T07:24:21Z</time>
      </trkpt>
      <trkpt lat="44.59186" lon="6.36994">
        <ele>1368</ele>
        <time>2009-11-23T07:24:21Z</time>
      </trkpt>
      <trkpt lat="44.59277" lon="6.36846">
        <ele>1384</ele>
        <time>2009-11-23T07:24:21Z</time>
      </trkpt>
      <trkpt lat="44.59401" lon="6.36713">
        <ele>1388</ele>
        <time>2009-11-23T07:24:21Z</time>
      </trkpt>
      <trkpt lat="44.59425" lon="6.36677">
        <ele>1387</ele>
        <time>2009-11-23T07:24:21Z</time>
      </trkpt>
      <trkpt lat="44.59437" lon="6.36653">
        <ele>1386</ele>
        <time>2009-11-23T07:24:21Z</time>
      </trkpt>
      <trkpt lat="44.59461" lon="6.36601">
        <ele>1389</ele>
        <time>2009-11-23T07:24:21Z</time>
      </trkpt>
      <trkpt lat="44.59499" lon="6.365">
        <ele>1393</ele>
        <time>2009-11-23T07:24:21Z</time>
      </trkpt>
      <trkpt lat="44.59534" lon="6.36398">
        <ele>1390</ele>
        <time>2009-11-23T07:24:21Z</time>
      </trkpt>
      <trkpt lat="44.59503" lon="6.36386">
        <ele>1383</ele>
        <time>2009-11-23T07:24:21Z</time>
      </trkpt>
      <trkpt lat="44.59482" lon="6.36413">
        <ele>1379</ele>
        <time>2009-11-23T07:24:21Z</time>
      </trkpt>
      <trkpt lat="44.59461" lon="6.36371">
        <ele>1375</ele>
        <time>2009-11-23T07:24:21Z</time>
      </trkpt>
      <trkpt lat="44.59427" lon="6.36359">
        <ele>1368</ele>
        <time>2009-11-23T07:24:21Z</time>
      </trkpt>
      <trkpt lat="44.59424" lon="6.36327">
        <ele>1367</ele>
        <time>2009-11-23T07:24:21Z</time>
      </trkpt>
      <trkpt lat="44.59389" lon="6.36312">
        <ele>1360</ele>
        <time>2009-11-23T07:24:21Z</time>
      </trkpt>
      <trkpt lat="44.59375" lon="6.36258">
        <ele>1354</ele>
        <time>2009-11-23T07:24:21Z</time>
      </trkpt>
      <trkpt lat="44.59376" lon="6.36229">
        <ele>1353</ele>
        <time>2009-11-23T07:24:21Z</time>
      </trkpt>
      <trkpt lat="44.59377" lon="6.36201">
        <ele>1352</ele>
        <time>2009-11-23T07:24:21Z</time>
      </trkpt>
      <trkpt lat="44.59359" lon="6.36187">
        <ele>1348</ele>
        <time>2009-11-23T07:24:21Z</time>
      </trkpt>
      <trkpt lat="44.59334" lon="6.36195">
        <ele>1344</ele>
        <time>2009-11-23T07:24:21Z</time>
      </trkpt>
      <trkpt lat="44.59316" lon="6.36146">
        <ele>1336</ele>
        <time>2009-11-23T07:24:21Z</time>
      </trkpt>
      <trkpt lat="44.59341" lon="6.36079">
        <ele>1335</ele>
        <time>2009-11-23T07:24:21Z</time>
      </trkpt>
      <trkpt lat="44.59346" lon="6.36051">
        <ele>1332</ele>
        <time>2009-11-23T07:24:21Z</time>
      </trkpt>
      <trkpt lat="44.59329" lon="6.36034">
        <ele>1329</ele>
        <time>2009-11-23T07:24:21Z</time>
      </trkpt>
      <trkpt lat="44.59286" lon="6.3604">
        <ele>1325</ele>
        <time>2009-11-23T07:24:21Z</time>
      </trkpt>
      <trkpt lat="44.59245" lon="6.36053">
        <ele>1327</ele>
        <time>2009-11-23T07:24:21Z</time>
      </trkpt>
      <trkpt lat="44.59199" lon="6.36094">
        <ele>1334</ele>
        <time>2009-11-23T07:24:21Z</time>
      </trkpt>
      <trkpt lat="44.59164" lon="6.36113">
        <ele>1342</ele>
        <time>2009-11-23T07:24:21Z</time>
      </trkpt>
      <trkpt lat="44.59131" lon="6.36158">
        <ele>1343</ele>
        <time>2009-11-23T07:24:21Z</time>
      </trkpt>
      <trkpt lat="44.59118" lon="6.36195">
        <ele>1340</ele>
        <time>2009-11-23T07:24:21Z</time>
      </trkpt>
      <trkpt lat="44.59102" lon="6.36222">
        <ele>1343</ele>
        <time>2009-11-23T07:24:21Z</time>
      </trkpt>
      <trkpt lat="44.59062" lon="6.36254">
        <ele>1353</ele>
        <time>2009-11-23T07:24:21Z</time>
      </trkpt>
      <trkpt lat="44.59029" lon="6.36302">
        <ele>1355</ele>
        <time>2009-11-23T07:24:21Z</time>
      </trkpt>
      <trkpt lat="44.58923" lon="6.36373">
        <ele>1366</ele>
        <time>2009-11-23T07:24:21Z</time>
      </trkpt>
      <trkpt lat="44.58877" lon="6.36398">
        <ele>1364</ele>
        <time>2009-11-23T07:24:21Z</time>
      </trkpt>
      <trkpt lat="44.58822" lon="6.36423">
        <ele>1362</ele>
        <time>2009-11-23T07:24:21Z</time>
      </trkpt>
      <trkpt lat="44.58783" lon="6.36432">
        <ele>1364</ele>
        <time>2009-11-23T07:24:21Z</time>
      </trkpt>
      <trkpt lat="44.58734" lon="6.36479">
        <ele>1360</ele>
        <time>2009-11-23T07:24:21Z</time>
      </trkpt>
      <trkpt lat="44.58685" lon="6.36526">
        <ele>1358</ele>
        <time>2009-11-23T07:24:21Z</time>
      </trkpt>
      <trkpt lat="44.5865" lon="6.36577">
        <ele>1357</ele>
        <time>2009-11-23T07:24:21Z</time>
      </trkpt>
      <trkpt lat="44.58633" lon="6.36608">
        <ele>1354</ele>
        <time>2009-11-23T07:24:21Z</time>
      </trkpt>
      <trkpt lat="44.58584" lon="6.36648">
        <ele>1352</ele>
        <time>2009-11-23T07:24:21Z</time>
      </trkpt>
      <trkpt lat="44.58561" lon="6.3665">
        <ele>1355</ele>
        <time>2009-11-23T07:24:21Z</time>
      </trkpt>
      <trkpt lat="44.58533" lon="6.36622">
        <ele>1367</ele>
        <time>2009-11-23T07:24:21Z</time>
      </trkpt>
      <trkpt lat="44.58489" lon="6.366">
        <ele>1365</ele>
        <time>2009-11-23T07:24:21Z</time>
      </trkpt>
      <trkpt lat="44.58458" lon="6.36589">
        <ele>1362</ele>
        <time>2009-11-23T07:24:21Z</time>
      </trkpt>
      <trkpt lat="44.58397" lon="6.3665">
        <ele>1348</ele>
        <time>2009-11-23T07:24:21Z</time>
      </trkpt>
      <trkpt lat="44.58343" lon="6.36706">
        <ele>1352</ele>
        <time>2009-11-23T07:24:21Z</time>
      </trkpt>
      <trkpt lat="44.58304" lon="6.36741">
        <ele>1353</ele>
        <time>2009-11-23T07:24:21Z</time>
      </trkpt>
      <trkpt lat="44.58254" lon="6.36795">
        <ele>1355</ele>
        <time>2009-11-23T07:24:21Z</time>
      </trkpt>
      <trkpt lat="44.58201" lon="6.36838">
        <ele>1354</ele>
        <time>2009-11-23T07:24:21Z</time>
      </trkpt>
      <trkpt lat="44.58154" lon="6.36898">
        <ele>1351</ele>
        <time>2009-11-23T07:24:21Z</time>
      </trkpt>
      <trkpt lat="44.58116" lon="6.36936">
        <ele>1347</ele>
        <time>2009-11-23T07:24:21Z</time>
      </trkpt>
      <trkpt lat="44.58057" lon="6.3696">
        <ele>1350</ele>
        <time>2009-11-23T07:24:21Z</time>
      </trkpt>
      <trkpt lat="44.57998" lon="6.36975">
        <ele>1361</ele>
        <time>2009-11-23T07:24:21Z</time>
      </trkpt>
      <trkpt lat="44.57967" lon="6.37013">
        <ele>1362</ele>
        <time>2009-11-23T07:24:21Z</time>
      </trkpt>
      <trkpt lat="44.57951" lon="6.37012">
        <ele>1365</ele>
        <time>2009-11-23T07:24:21Z</time>
      </trkpt>
      <trkpt lat="44.57946" lon="6.36968">
        <ele>1372</ele>
        <time>2009-11-23T07:24:21Z</time>
      </trkpt>
      <trkpt lat="44.58007" lon="6.36906">
        <ele>1371</ele>
        <time>2009-11-23T07:24:21Z</time>
      </trkpt>
      <trkpt lat="44.58068" lon="6.36854">
        <ele>1374</ele>
        <time>2009-11-23T07:24:21Z</time>
      </trkpt>
      <trkpt lat="44.58117" lon="6.36788">
        <ele>1379</ele>
        <time>2009-11-23T07:24:21Z</time>
      </trkpt>
      <trkpt lat="44.58152" lon="6.36765">
        <ele>1377</ele>
        <time>2009-11-23T07:24:21Z</time>
      </trkpt>
      <trkpt lat="44.58167" lon="6.36716">
        <ele>1387</ele>
        <time>2009-11-23T07:24:21Z</time>
      </trkpt>
      <trkpt lat="44.58205" lon="6.36659">
        <ele>1395</ele>
        <time>2009-11-23T07:24:21Z</time>
      </trkpt>
      <trkpt lat="44.58284" lon="6.36548">
        <ele>1409</ele>
        <time>2009-11-23T07:24:21Z</time>
      </trkpt>
      <trkpt lat="44.5836" lon="6.36443">
        <ele>1420</ele>
        <time>2009-11-23T07:24:21Z</time>
      </trkpt>
      <trkpt lat="44.58394" lon="6.36367">
        <ele>1433</ele>
        <time>2009-11-23T07:24:21Z</time>
      </trkpt>
      <trkpt lat="44.58424" lon="6.3629">
        <ele>1441</ele>
        <time>2009-11-23T07:24:21Z</time>
      </trkpt>
      <trkpt lat="44.5849" lon="6.3626">
        <ele>1441</ele>
        <time>2009-11-23T07:24:21Z</time>
      </trkpt>
      <trkpt lat="44.58519" lon="6.36215">
        <ele>1448</ele>
        <time>2009-11-23T07:24:21Z</time>
      </trkpt>
      <trkpt lat="44.58543" lon="6.36154">
        <ele>1457</ele>
        <time>2009-11-23T07:24:21Z</time>
      </trkpt>
      <trkpt lat="44.58583" lon="6.36125">
        <ele>1457</ele>
        <time>2009-11-23T07:24:21Z</time>
      </trkpt>
      <trkpt lat="44.58626" lon="6.36059">
        <ele>1466</ele>
        <time>2009-11-23T07:24:21Z</time>
      </trkpt>
      <trkpt lat="44.5867" lon="6.36012">
        <ele>1470</ele>
        <time>2009-11-23T07:24:21Z</time>
      </trkpt>
      <trkpt lat="44.58709" lon="6.35929">
        <ele>1475</ele>
        <time>2009-11-23T07:24:21Z</time>
      </trkpt>
      <trkpt lat="44.58739" lon="6.35862">
        <ele>1488</ele>
        <time>2009-11-23T07:24:21Z</time>
      </trkpt>
      <trkpt lat="44.58746" lon="6.35841">
        <ele>1492</ele>
        <time>2009-11-23T07:24:21Z</time>
      </trkpt>
      <trkpt lat="44.5871" lon="6.35854">
        <ele>1496</ele>
        <time>2009-11-23T07:24:21Z</time>
      </trkpt>
      <trkpt lat="44.58673" lon="6.35883">
        <ele>1499</ele>
        <time>2009-11-23T07:24:21Z</time>
      </trkpt>
      <trkpt lat="44.58617" lon="6.35926">
        <ele>1502</ele>
        <time>2009-11-23T07:24:21Z</time>
      </trkpt>
      <trkpt lat="44.58572" lon="6.35942">
        <ele>1508</ele>
        <time>2009-11-23T07:24:21Z</time>
      </trkpt>
      <trkpt lat="44.58523" lon="6.35979">
        <ele>1507</ele>
        <time>2009-11-23T07:24:21Z</time>
      </trkpt>
      <trkpt lat="44.58467" lon="6.35978">
        <ele>1519</ele>
        <time>2009-11-23T07:24:21Z</time>
      </trkpt>
      <trkpt lat="44.58429" lon="6.3596">
        <ele>1520</ele>
        <time>2009-11-23T07:24:21Z</time>
      </trkpt>
      <trkpt lat="44.58376" lon="6.35997">
        <ele>1516</ele>
        <time>2009-11-23T07:24:21Z</time>
      </trkpt>
      <trkpt lat="44.58338" lon="6.36041">
        <ele>1523</ele>
        <time>2009-11-23T07:24:21Z</time>
      </trkpt>
      <trkpt lat="44.58337" lon="6.36076">
        <ele>1516</ele>
        <time>2009-11-23T07:24:21Z</time>
      </trkpt>
      <trkpt lat="44.58315" lon="6.36115">
        <ele>1519</ele>
        <time>2009-11-23T07:24:21Z</time>
      </trkpt>
      <trkpt lat="44.58274" lon="6.36191">
        <ele>1528</ele>
        <time>2009-11-23T07:24:21Z</time>
      </trkpt>
      <trkpt lat="44.58259" lon="6.36225">
        <ele>1527</ele>
        <time>2009-11-23T07:24:21Z</time>
      </trkpt>
      <trkpt lat="44.58164" lon="6.36303">
        <ele>1538</ele>
        <time>2009-11-23T07:24:21Z</time>
      </trkpt>
      <trkpt lat="44.58128" lon="6.36316">
        <ele>1545</ele>
        <time>2009-11-23T07:24:21Z</time>
      </trkpt>
      <trkpt lat="44.58064" lon="6.36286">
        <ele>1550</ele>
        <time>2009-11-23T07:24:21Z</time>
      </trkpt>
      <trkpt lat="44.57936" lon="6.36384">
        <ele>1536</ele>
        <time>2009-11-23T07:24:21Z</time>
      </trkpt>
      <trkpt lat="44.57871" lon="6.36452">
        <ele>1526</ele>
        <time>2009-11-23T07:24:21Z</time>
      </trkpt>
      <trkpt lat="44.57773" lon="6.36549">
        <ele>1508</ele>
        <time>2009-11-23T07:24:21Z</time>
      </trkpt>
      <trkpt lat="44.5773" lon="6.36596">
        <ele>1501</ele>
        <time>2009-11-23T07:24:21Z</time>
      </trkpt>
      <trkpt lat="44.57698" lon="6.36625">
        <ele>1497</ele>
        <time>2009-11-23T07:24:21Z</time>
      </trkpt>
      <trkpt lat="44.57675" lon="6.3664">
        <ele>1496</ele>
        <time>2009-11-23T07:24:21Z</time>
      </trkpt>
      <trkpt lat="44.57644" lon="6.36675">
        <ele>1494</ele>
        <time>2009-11-23T07:24:21Z</time>
      </trkpt>
      <trkpt lat="44.57614" lon="6.36701">
        <ele>1491</ele>
        <time>2009-11-23T07:24:21Z</time>
      </trkpt>
      <trkpt lat="44.57598" lon="6.367">
        <ele>1491</ele>
        <time>2009-11-23T07:24:21Z</time>
      </trkpt>
      <trkpt lat="44.57619" lon="6.36673">
        <ele>1494</ele>
        <time>2009-11-23T07:24:21Z</time>
      </trkpt>
      <trkpt lat="44.57632" lon="6.36633">
        <ele>1498</ele>
        <time>2009-11-23T07:24:21Z</time>
      </trkpt>
      <trkpt lat="44.57676" lon="6.36605">
        <ele>1499</ele>
        <time>2009-11-23T07:24:21Z</time>
      </trkpt>
      <trkpt lat="44.57704" lon="6.36572">
        <ele>1503</ele>
        <time>2009-11-23T07:24:21Z</time>
      </trkpt>
      <trkpt lat="44.57705" lon="6.36547">
        <ele>1507</ele>
        <time>2009-11-23T07:24:21Z</time>
      </trkpt>
      <trkpt lat="44.57697" lon="6.36528">
        <ele>1510</ele>
        <time>2009-11-23T07:24:21Z</time>
      </trkpt>
      <trkpt lat="44.57679" lon="6.36517">
        <ele>1512</ele>
        <time>2009-11-23T07:24:21Z</time>
      </trkpt>
      <trkpt lat="44.57657" lon="6.36515">
        <ele>1512</ele>
        <time>2009-11-23T07:24:21Z</time>
      </trkpt>
      <trkpt lat="44.57617" lon="6.3655">
        <ele>1507</ele>
        <time>2009-11-23T07:24:21Z</time>
      </trkpt>
      <trkpt lat="44.57581" lon="6.36567">
        <ele>1510</ele>
        <time>2009-11-23T07:24:21Z</time>
      </trkpt>
      <trkpt lat="44.57524" lon="6.36569">
        <ele>1515</ele>
        <time>2009-11-23T07:24:21Z</time>
      </trkpt>
      <trkpt lat="44.57465" lon="6.3659">
        <ele>1518</ele>
        <time>2009-11-23T07:24:21Z</time>
      </trkpt>
      <trkpt lat="44.57426" lon="6.36609">
        <ele>1520</ele>
        <time>2009-11-23T07:24:21Z</time>
      </trkpt>
      <trkpt lat="44.57397" lon="6.36604">
        <ele>1524</ele>
        <time>2009-11-23T07:24:21Z</time>
      </trkpt>
      <trkpt lat="44.57389" lon="6.36575">
        <ele>1529</ele>
        <time>2009-11-23T07:24:21Z</time>
      </trkpt>
      <trkpt lat="44.57418" lon="6.3653">
        <ele>1532</ele>
        <time>2009-11-23T07:24:21Z</time>
      </trkpt>
      <trkpt lat="44.5744" lon="6.36522">
        <ele>1530</ele>
        <time>2009-11-23T07:24:21Z</time>
      </trkpt>
      <trkpt lat="44.57431" lon="6.36465">
        <ele>1535</ele>
        <time>2009-11-23T07:24:21Z</time>
      </trkpt>
      <trkpt lat="44.57439" lon="6.36424">
        <ele>1537</ele>
        <time>2009-11-23T07:24:21Z</time>
      </trkpt>
      <trkpt lat="44.57463" lon="6.36394">
        <ele>1539</ele>
        <time>2009-11-23T07:24:21Z</time>
      </trkpt>
      <trkpt lat="44.57489" lon="6.36349">
        <ele>1544</ele>
        <time>2009-11-23T07:24:21Z</time>
      </trkpt>
      <trkpt lat="44.57513" lon="6.36313">
        <ele>1548</ele>
        <time>2009-11-23T07:24:21Z</time>
      </trkpt>
      <trkpt lat="44.57564" lon="6.36225">
        <ele>1554</ele>
        <time>2009-11-23T07:24:21Z</time>
      </trkpt>
      <trkpt lat="44.57555" lon="6.36152">
        <ele>1555</ele>
        <time>2009-11-23T07:24:21Z</time>
      </trkpt>
      <trkpt lat="44.57555" lon="6.36102">
        <ele>1557</ele>
        <time>2009-11-23T07:24:21Z</time>
      </trkpt>
      <trkpt lat="44.57569" lon="6.36078">
        <ele>1556</ele>
        <time>2009-11-23T07:24:21Z</time>
      </trkpt>
      <trkpt lat="44.57579" lon="6.36059">
        <ele>1557</ele>
        <time>2009-11-23T07:24:21Z</time>
      </trkpt>
      <trkpt lat="44.57563" lon="6.36049">
        <ele>1559</ele>
        <time>2009-11-23T07:24:21Z</time>
      </trkpt>
      <trkpt lat="44.57533" lon="6.36094">
        <ele>1562</ele>
        <time>2009-11-23T07:24:21Z</time>
      </trkpt>
      <trkpt lat="44.57506" lon="6.36146">
        <ele>1560</ele>
        <time>2009-11-23T07:24:21Z</time>
      </trkpt>
      <trkpt lat="44.57464" lon="6.36183">
        <ele>1561</ele>
        <time>2009-11-23T07:24:21Z</time>
      </trkpt>
      <trkpt lat="44.57431" lon="6.36235">
        <ele>1563</ele>
        <time>2009-11-23T07:24:21Z</time>
      </trkpt>
      <trkpt lat="44.57392" lon="6.36295">
        <ele>1567</ele>
        <time>2009-11-23T07:24:21Z</time>
      </trkpt>
      <trkpt lat="44.57347" lon="6.36373">
        <ele>1562</ele>
        <time>2009-11-23T07:24:21Z</time>
      </trkpt>
      <trkpt lat="44.57318" lon="6.36359">
        <ele>1575</ele>
        <time>2009-11-23T07:24:21Z</time>
      </trkpt>
      <trkpt lat="44.5728" lon="6.3641">
        <ele>1569</ele>
        <time>2009-11-23T07:24:21Z</time>
      </trkpt>
      <trkpt lat="44.57235" lon="6.36419">
        <ele>1579</ele>
        <time>2009-11-23T07:24:21Z</time>
      </trkpt>
      <trkpt lat="44.572" lon="6.36439">
        <ele>1585</ele>
        <time>2009-11-23T07:24:21Z</time>
      </trkpt>
      <trkpt lat="44.57178" lon="6.36481">
        <ele>1585</ele>
        <time>2009-11-23T07:24:21Z</time>
      </trkpt>
      <trkpt lat="44.57114" lon="6.36508">
        <ele>1594</ele>
        <time>2009-11-23T07:24:21Z</time>
      </trkpt>
      <trkpt lat="44.57062" lon="6.36523">
        <ele>1593</ele>
        <time>2009-11-23T07:24:21Z</time>
      </trkpt>
      <trkpt lat="44.56971" lon="6.36501">
        <ele>1589</ele>
        <time>2009-11-23T07:24:21Z</time>
      </trkpt>
      <trkpt lat="44.56862" lon="6.36443">
        <ele>1586</ele>
        <time>2009-11-23T07:24:21Z</time>
      </trkpt>
      <trkpt lat="44.56777" lon="6.36367">
        <ele>1593</ele>
        <time>2009-11-23T07:24:21Z</time>
      </trkpt>
      <trkpt lat="44.56726" lon="6.36285">
        <ele>1600</ele>
        <time>2009-11-23T07:24:21Z</time>
      </trkpt>
      <trkpt lat="44.56678" lon="6.36259">
        <ele>1595</ele>
        <time>2009-11-23T07:24:21Z</time>
      </trkpt>
      <trkpt lat="44.56633" lon="6.36253">
        <ele>1594</ele>
        <time>2009-11-23T07:24:21Z</time>
      </trkpt>
      <trkpt lat="44.56596" lon="6.36222">
        <ele>1599</ele>
        <time>2009-11-23T07:24:21Z</time>
      </trkpt>
      <trkpt lat="44.56575" lon="6.36183">
        <ele>1602</ele>
        <time>2009-11-23T07:24:21Z</time>
      </trkpt>
      <trkpt lat="44.56538" lon="6.36145">
        <ele>1602</ele>
        <time>2009-11-23T07:24:21Z</time>
      </trkpt>
      <trkpt lat="44.56519" lon="6.36103">
        <ele>1604</ele>
        <time>2009-11-23T07:24:21Z</time>
      </trkpt>
      <trkpt lat="44.56503" lon="6.36045">
        <ele>1606</ele>
        <time>2009-11-23T07:24:21Z</time>
      </trkpt>
      <trkpt lat="44.56496" lon="6.35935">
        <ele>1611</ele>
        <time>2009-11-23T07:24:21Z</time>
      </trkpt>
      <trkpt lat="44.56497" lon="6.35897">
        <ele>1613</ele>
        <time>2009-11-23T07:24:21Z</time>
      </trkpt>
      <trkpt lat="44.565" lon="6.35831">
        <ele>1612</ele>
        <time>2009-11-23T07:24:21Z</time>
      </trkpt>
      <trkpt lat="44.56529" lon="6.35773">
        <ele>1616</ele>
        <time>2009-11-23T07:24:21Z</time>
      </trkpt>
      <trkpt lat="44.56535" lon="6.3572">
        <ele>1616</ele>
        <time>2009-11-23T07:24:21Z</time>
      </trkpt>
      <trkpt lat="44.56531" lon="6.35663">
        <ele>1613</ele>
        <time>2009-11-23T07:24:21Z</time>
      </trkpt>
      <trkpt lat="44.56525" lon="6.35628">
        <ele>1611</ele>
        <time>2009-11-23T07:24:21Z</time>
      </trkpt>
      <trkpt lat="44.56541" lon="6.3556">
        <ele>1612</ele>
        <time>2009-11-23T07:24:21Z</time>
      </trkpt>
      <trkpt lat="44.56557" lon="6.35498">
        <ele>1614</ele>
        <time>2009-11-23T07:24:21Z</time>
      </trkpt>
      <trkpt lat="44.56578" lon="6.35408">
        <ele>1620</ele>
        <time>2009-11-23T07:24:21Z</time>
      </trkpt>
      <trkpt lat="44.56613" lon="6.3531">
        <ele>1628</ele>
        <time>2009-11-23T07:24:21Z</time>
      </trkpt>
      <trkpt lat="44.56623" lon="6.35238">
        <ele>1626</ele>
        <time>2009-11-23T07:24:21Z</time>
      </trkpt>
      <trkpt lat="44.56664" lon="6.3521">
        <ele>1636</ele>
        <time>2009-11-23T07:24:21Z</time>
      </trkpt>
      <trkpt lat="44.56686" lon="6.35177">
        <ele>1638</ele>
        <time>2009-11-23T07:24:21Z</time>
      </trkpt>
      <trkpt lat="44.5668" lon="6.35101">
        <ele>1632</ele>
        <time>2009-11-23T07:24:21Z</time>
      </trkpt>
      <trkpt lat="44.5672" lon="6.35034">
        <ele>1645</ele>
        <time>2009-11-23T07:24:21Z</time>
      </trkpt>
      <trkpt lat="44.5677" lon="6.34978">
        <ele>1648</ele>
        <time>2009-11-23T07:24:21Z</time>
      </trkpt>
      <trkpt lat="44.56778" lon="6.34931">
        <ele>1636</ele>
        <time>2009-11-23T07:24:21Z</time>
      </trkpt>
      <trkpt lat="44.56766" lon="6.34902">
        <ele>1632</ele>
        <time>2009-11-23T07:24:21Z</time>
      </trkpt>
      <trkpt lat="44.56731" lon="6.34859">
        <ele>1626</ele>
        <time>2009-11-23T07:24:21Z</time>
      </trkpt>
      <trkpt lat="44.56703" lon="6.34835">
        <ele>1626</ele>
        <time>2009-11-23T07:24:21Z</time>
      </trkpt>
      <trkpt lat="44.56698" lon="6.34778">
        <ele>1636</ele>
        <time>2009-11-23T07:24:21Z</time>
      </trkpt>
      <trkpt lat="44.56698" lon="6.34733">
        <ele>1642</ele>
        <time>2009-11-23T07:24:21Z</time>
      </trkpt>
      <trkpt lat="44.56692" lon="6.34698">
        <ele>1644</ele>
        <time>2009-11-23T07:24:21Z</time>
      </trkpt>
      <trkpt lat="44.56725" lon="6.34657">
        <ele>1655</ele>
        <time>2009-11-23T07:24:21Z</time>
      </trkpt>
      <trkpt lat="44.56793" lon="6.34592">
        <ele>1671</ele>
        <time>2009-11-23T07:24:21Z</time>
      </trkpt>
      <trkpt lat="44.56796" lon="6.34517">
        <ele>1662</ele>
        <time>2009-11-23T07:24:21Z</time>
      </trkpt>
      <trkpt lat="44.56809" lon="6.34467">
        <ele>1666</ele>
        <time>2009-11-23T07:24:21Z</time>
      </trkpt>
      <trkpt lat="44.56838" lon="6.34397">
        <ele>1674</ele>
        <time>2009-11-23T07:24:21Z</time>
      </trkpt>
      <trkpt lat="44.56856" lon="6.34342">
        <ele>1681</ele>
        <time>2009-11-23T07:24:21Z</time>
      </trkpt>
      <trkpt lat="44.56836" lon="6.34221">
        <ele>1683</ele>
        <time>2009-11-23T07:24:21Z</time>
      </trkpt>
      <trkpt lat="44.56817" lon="6.34188">
        <ele>1680</ele>
        <time>2009-11-23T07:24:21Z</time>
      </trkpt>
      <trkpt lat="44.56754" lon="6.34167">
        <ele>1675</ele>
        <time>2009-11-23T07:24:21Z</time>
      </trkpt>
      <trkpt lat="44.56704" lon="6.34123">
        <ele>1684</ele>
        <time>2009-11-23T07:24:21Z</time>
      </trkpt>
      <trkpt lat="44.56682" lon="6.34055">
        <ele>1686</ele>
        <time>2009-11-23T07:24:21Z</time>
      </trkpt>
      <trkpt lat="44.56676" lon="6.33954">
        <ele>1683</ele>
        <time>2009-11-23T07:24:21Z</time>
      </trkpt>
      <trkpt lat="44.56659" lon="6.3388">
        <ele>1678</ele>
        <time>2009-11-23T07:24:21Z</time>
      </trkpt>
      <trkpt lat="44.56636" lon="6.33841">
        <ele>1671</ele>
        <time>2009-11-23T07:24:21Z</time>
      </trkpt>
      <trkpt lat="44.56631" lon="6.3391">
        <ele>1660</ele>
        <time>2009-11-23T07:24:21Z</time>
      </trkpt>
      <trkpt lat="44.56596" lon="6.33888">
        <ele>1648</ele>
        <time>2009-11-23T07:24:21Z</time>
      </trkpt>
      <trkpt lat="44.56561" lon="6.33839">
        <ele>1646</ele>
        <time>2009-11-23T07:24:21Z</time>
      </trkpt>
      <trkpt lat="44.56546" lon="6.33768">
        <ele>1645</ele>
        <time>2009-11-23T07:24:21Z</time>
      </trkpt>
      <trkpt lat="44.56537" lon="6.33692">
        <ele>1641</ele>
        <time>2009-11-23T07:24:21Z</time>
      </trkpt>
      <trkpt lat="44.56529" lon="6.33673">
        <ele>1638</ele>
        <time>2009-11-23T07:24:21Z</time>
      </trkpt>
      <trkpt lat="44.565" lon="6.33664">
        <ele>1629</ele>
        <time>2009-11-23T07:24:21Z</time>
      </trkpt>
      <trkpt lat="44.56487" lon="6.33648">
        <ele>1627</ele>
        <time>2009-11-23T07:24:21Z</time>
      </trkpt>
      <trkpt lat="44.56476" lon="6.33581">
        <ele>1630</ele>
        <time>2009-11-23T07:24:21Z</time>
      </trkpt>
      <trkpt lat="44.56426" lon="6.33533">
        <ele>1613</ele>
        <time>2009-11-23T07:24:21Z</time>
      </trkpt>
      <trkpt lat="44.5641" lon="6.33482">
        <ele>1610</ele>
        <time>2009-11-23T07:24:21Z</time>
      </trkpt>
      <trkpt lat="44.56446" lon="6.33418">
        <ele>1616</ele>
        <time>2009-11-23T07:24:21Z</time>
      </trkpt>
      <trkpt lat="44.56472" lon="6.33319">
        <ele>1606</ele>
        <time>2009-11-23T07:24:21Z</time>
      </trkpt>
      <trkpt lat="44.56416" lon="6.33366">
        <ele>1599</ele>
        <time>2009-11-23T07:24:21Z</time>
      </trkpt>
      <trkpt lat="44.56367" lon="6.33371">
        <ele>1588</ele>
        <time>2009-11-23T07:24:21Z</time>
      </trkpt>
      <trkpt lat="44.56382" lon="6.33316">
        <ele>1583</ele>
        <time>2009-11-23T07:24:21Z</time>
      </trkpt>
      <trkpt lat="44.56427" lon="6.33272">
        <ele>1586</ele>
        <time>2009-11-23T07:24:21Z</time>
      </trkpt>
      <trkpt lat="44.56479" lon="6.33181">
        <ele>1573</ele>
        <time>2009-11-23T07:24:21Z</time>
      </trkpt>
      <trkpt lat="44.56476" lon="6.33096">
        <ele>1559</ele>
        <time>2009-11-23T07:24:21Z</time>
      </trkpt>
      <trkpt lat="44.56487" lon="6.33037">
        <ele>1556</ele>
        <time>2009-11-23T07:24:21Z</time>
      </trkpt>
      <trkpt lat="44.5648" lon="6.3297">
        <ele>1551</ele>
        <time>2009-11-23T07:24:21Z</time>
      </trkpt>
      <trkpt lat="44.56469" lon="6.329">
        <ele>1543</ele>
        <time>2009-11-23T07:24:21Z</time>
      </trkpt>
      <trkpt lat="44.56455" lon="6.32874">
        <ele>1537</ele>
        <time>2009-11-23T07:24:21Z</time>
      </trkpt>
      <trkpt lat="44.56399" lon="6.32845">
        <ele>1523</ele>
        <time>2009-11-23T07:24:21Z</time>
      </trkpt>
      <trkpt lat="44.56385" lon="6.32806">
        <ele>1523</ele>
        <time>2009-11-23T07:24:21Z</time>
      </trkpt>
      <trkpt lat="44.56368" lon="6.32776">
        <ele>1521</ele>
        <time>2009-11-23T07:24:21Z</time>
      </trkpt>
      <trkpt lat="44.56342" lon="6.32746">
        <ele>1516</ele>
        <time>2009-11-23T07:24:21Z</time>
      </trkpt>
      <trkpt lat="44.5634" lon="6.32611">
        <ele>1519</ele>
        <time>2009-11-23T07:24:21Z</time>
      </trkpt>
      <trkpt lat="44.56331" lon="6.325">
        <ele>1513</ele>
        <time>2009-11-23T07:24:21Z</time>
      </trkpt>
      <trkpt lat="44.5635" lon="6.32341">
        <ele>1507</ele>
        <time>2009-11-23T07:24:21Z</time>
      </trkpt>
      <trkpt lat="44.56358" lon="6.3219">
        <ele>1494</ele>
        <time>2009-11-23T07:24:21Z</time>
      </trkpt>
      <trkpt lat="44.56357" lon="6.32077">
        <ele>1478</ele>
        <time>2009-11-23T07:24:21Z</time>
      </trkpt>
      <trkpt lat="44.56327" lon="6.31923">
        <ele>1455</ele>
        <time>2009-11-23T07:24:21Z</time>
      </trkpt>
      <trkpt lat="44.56328" lon="6.31848">
        <ele>1451</ele>
        <time>2009-11-23T07:24:21Z</time>
      </trkpt>
      <trkpt lat="44.56363" lon="6.31794">
        <ele>1448</ele>
        <time>2009-11-23T07:24:21Z</time>
      </trkpt>
      <trkpt lat="44.56433" lon="6.31783">
        <ele>1450</ele>
        <time>2009-11-23T07:24:21Z</time>
      </trkpt>
      <trkpt lat="44.56482" lon="6.31755">
        <ele>1446</ele>
        <time>2009-11-23T07:24:21Z</time>
      </trkpt>
      <trkpt lat="44.56509" lon="6.31691">
        <ele>1439</ele>
        <time>2009-11-23T07:24:21Z</time>
      </trkpt>
      <trkpt lat="44.56504" lon="6.31634">
        <ele>1430</ele>
        <time>2009-11-23T07:24:21Z</time>
      </trkpt>
      <trkpt lat="44.56486" lon="6.31582">
        <ele>1424</ele>
        <time>2009-11-23T07:24:21Z</time>
      </trkpt>
      <trkpt lat="44.56464" lon="6.31568">
        <ele>1420</ele>
        <time>2009-11-23T07:24:21Z</time>
      </trkpt>
      <trkpt lat="44.56474" lon="6.31537">
        <ele>1422</ele>
        <time>2009-11-23T07:24:21Z</time>
      </trkpt>
      <trkpt lat="44.56525" lon="6.315">
        <ele>1427</ele>
        <time>2009-11-23T07:24:21Z</time>
      </trkpt>
      <trkpt lat="44.56562" lon="6.31477">
        <ele>1432</ele>
        <time>2009-11-23T07:24:21Z</time>
      </trkpt>
      <trkpt lat="44.5657" lon="6.31433">
        <ele>1433</ele>
        <time>2009-11-23T07:24:21Z</time>
      </trkpt>
      <trkpt lat="44.56555" lon="6.31354">
        <ele>1435</ele>
        <time>2009-11-23T07:24:21Z</time>
      </trkpt>
      <trkpt lat="44.56548" lon="6.31293">
        <ele>1439</ele>
        <time>2009-11-23T07:24:21Z</time>
      </trkpt>
      <trkpt lat="44.56594" lon="6.31271">
        <ele>1449</ele>
        <time>2009-11-23T07:24:21Z</time>
      </trkpt>
      <trkpt lat="44.56615" lon="6.31254">
        <ele>1453</ele>
        <time>2009-11-23T07:24:21Z</time>
      </trkpt>
      <trkpt lat="44.56639" lon="6.31202">
        <ele>1455</ele>
        <time>2009-11-23T07:24:21Z</time>
      </trkpt>
      <trkpt lat="44.56669" lon="6.31195">
        <ele>1462</ele>
        <time>2009-11-23T07:24:21Z</time>
      </trkpt>
      <trkpt lat="44.56685" lon="6.31228">
        <ele>1469</ele>
        <time>2009-11-23T07:24:21Z</time>
      </trkpt>
      <trkpt lat="44.56683" lon="6.31287">
        <ele>1473</ele>
        <time>2009-11-23T07:24:21Z</time>
      </trkpt>
      <trkpt lat="44.56671" lon="6.31312">
        <ele>1469</ele>
        <time>2009-11-23T07:24:21Z</time>
      </trkpt>
      <trkpt lat="44.56699" lon="6.31288">
        <ele>1479</ele>
        <time>2009-11-23T07:24:21Z</time>
      </trkpt>
      <trkpt lat="44.56737" lon="6.31237">
        <ele>1487</ele>
        <time>2009-11-23T07:24:21Z</time>
      </trkpt>
      <trkpt lat="44.56813" lon="6.31246">
        <ele>1504</ele>
        <time>2009-11-23T07:24:21Z</time>
      </trkpt>
      <trkpt lat="44.56861" lon="6.31227">
        <ele>1508</ele>
        <time>2009-11-23T07:24:21Z</time>
      </trkpt>
      <trkpt lat="44.56897" lon="6.31239">
        <ele>1518</ele>
        <time>2009-11-23T07:24:21Z</time>
      </trkpt>
      <trkpt lat="44.5692" lon="6.31206">
        <ele>1515</ele>
        <time>2009-11-23T07:24:21Z</time>
      </trkpt>
      <trkpt lat="44.56964" lon="6.31178">
        <ele>1516</ele>
        <time>2009-11-23T07:24:21Z</time>
      </trkpt>
      <trkpt lat="44.56978" lon="6.31157">
        <ele>1517</ele>
        <time>2009-11-23T07:24:21Z</time>
      </trkpt>
      <trkpt lat="44.56963" lon="6.31074">
        <ele>1516</ele>
        <time>2009-11-23T07:24:21Z</time>
      </trkpt>
      <trkpt lat="44.56976" lon="6.31034">
        <ele>1525</ele>
        <time>2009-11-23T07:24:21Z</time>
      </trkpt>
      <trkpt lat="44.56995" lon="6.30998">
        <ele>1532</ele>
        <time>2009-11-23T07:24:21Z</time>
      </trkpt>
      <trkpt lat="44.57024" lon="6.30902">
        <ele>1532</ele>
        <time>2009-11-23T07:24:21Z</time>
      </trkpt>
      <trkpt lat="44.57048" lon="6.30844">
        <ele>1540</ele>
        <time>2009-11-23T07:24:21Z</time>
      </trkpt>
      <trkpt lat="44.57055" lon="6.30772">
        <ele>1538</ele>
        <time>2009-11-23T07:24:21Z</time>
      </trkpt>
      <trkpt lat="44.57073" lon="6.3071">
        <ele>1544</ele>
        <time>2009-11-23T07:24:21Z</time>
      </trkpt>
      <trkpt lat="44.57079" lon="6.3067">
        <ele>1547</ele>
        <time>2009-11-23T07:24:21Z</time>
      </trkpt>
      <trkpt lat="44.57062" lon="6.30596">
        <ele>1549</ele>
        <time>2009-11-23T07:24:21Z</time>
      </trkpt>
      <trkpt lat="44.57103" lon="6.30564">
        <ele>1560</ele>
        <time>2009-11-23T07:24:21Z</time>
      </trkpt>
      <trkpt lat="44.5716" lon="6.3049">
        <ele>1569</ele>
        <time>2009-11-23T07:24:21Z</time>
      </trkpt>
      <trkpt lat="44.57216" lon="6.3044">
        <ele>1577</ele>
        <time>2009-11-23T07:24:21Z</time>
      </trkpt>
      <trkpt lat="44.57305" lon="6.30396">
        <ele>1591</ele>
        <time>2009-11-23T07:24:21Z</time>
      </trkpt>
      <trkpt lat="44.57377" lon="6.30341">
        <ele>1601</ele>
        <time>2009-11-23T07:24:21Z</time>
      </trkpt>
      <trkpt lat="44.57394" lon="6.30308">
        <ele>1602</ele>
        <time>2009-11-23T07:24:21Z</time>
      </trkpt>
      <trkpt lat="44.57436" lon="6.30257">
        <ele>1606</ele>
        <time>2009-11-23T07:24:21Z</time>
      </trkpt>
      <trkpt lat="44.57474" lon="6.30206">
        <ele>1605</ele>
        <time>2009-11-23T07:24:21Z</time>
      </trkpt>
      <trkpt lat="44.57568" lon="6.30178">
        <ele>1612</ele>
        <time>2009-11-23T07:24:21Z</time>
      </trkpt>
      <trkpt lat="44.57625" lon="6.30141">
        <ele>1607</ele>
        <time>2009-11-23T07:24:21Z</time>
      </trkpt>
      <trkpt lat="44.57669" lon="6.30107">
        <ele>1603</ele>
        <time>2009-11-23T07:24:21Z</time>
      </trkpt>
      <trkpt lat="44.57729" lon="6.30082">
        <ele>1608</ele>
        <time>2009-11-23T07:24:21Z</time>
      </trkpt>
      <trkpt lat="44.57768" lon="6.29988">
        <ele>1606</ele>
        <time>2009-11-23T07:24:21Z</time>
      </trkpt>
      <trkpt lat="44.57748" lon="6.29967">
        <ele>1598</ele>
        <time>2009-11-23T07:24:21Z</time>
      </trkpt>
      <trkpt lat="44.57739" lon="6.29926">
        <ele>1598</ele>
        <time>2009-11-23T07:24:21Z</time>
      </trkpt>
      <trkpt lat="44.57744" lon="6.29895">
        <ele>1602</ele>
        <time>2009-11-23T07:24:21Z</time>
      </trkpt>
      <trkpt lat="44.57766" lon="6.29855">
        <ele>1602</ele>
        <time>2009-11-23T07:24:21Z</time>
      </trkpt>
      <trkpt lat="44.57785" lon="6.29828">
        <ele>1606</ele>
        <time>2009-11-23T07:24:21Z</time>
      </trkpt>
      <trkpt lat="44.57789" lon="6.29775">
        <ele>1597</ele>
        <time>2009-11-23T07:24:21Z</time>
      </trkpt>
      <trkpt lat="44.57756" lon="6.29747">
        <ele>1578</ele>
        <time>2009-11-23T07:24:21Z</time>
      </trkpt>
      <trkpt lat="44.57764" lon="6.29713">
        <ele>1581</ele>
        <time>2009-11-23T07:24:21Z</time>
      </trkpt>
      <trkpt lat="44.57749" lon="6.29697">
        <ele>1576</ele>
        <time>2009-11-23T07:24:21Z</time>
      </trkpt>
      <trkpt lat="44.57742" lon="6.29649">
        <ele>1576</ele>
        <time>2009-11-23T07:24:21Z</time>
      </trkpt>
      <trkpt lat="44.57721" lon="6.29672">
        <ele>1567</ele>
        <time>2009-11-23T07:24:21Z</time>
      </trkpt>
      <trkpt lat="44.57711" lon="6.29584">
        <ele>1565</ele>
        <time>2009-11-23T07:24:21Z</time>
      </trkpt>
      <trkpt lat="44.57747" lon="6.29574">
        <ele>1571</ele>
        <time>2009-11-23T07:24:21Z</time>
      </trkpt>
      <trkpt lat="44.57663" lon="6.29461">
        <ele>1544</ele>
        <time>2009-11-23T07:24:21Z</time>
      </trkpt>
      <trkpt lat="44.57678" lon="6.29427">
        <ele>1548</ele>
        <time>2009-11-23T07:24:21Z</time>
      </trkpt>
      <trkpt lat="44.57677" lon="6.2938">
        <ele>1548</ele>
        <time>2009-11-23T07:24:21Z</time>
      </trkpt>
      <trkpt lat="44.57729" lon="6.29264">
        <ele>1551</ele>
        <time>2009-11-23T07:24:21Z</time>
      </trkpt>
      <trkpt lat="44.57693" lon="6.29192">
        <ele>1544</ele>
        <time>2009-11-23T07:24:21Z</time>
      </trkpt>
      <trkpt lat="44.57657" lon="6.29136">
        <ele>1545</ele>
        <time>2009-11-23T07:24:21Z</time>
      </trkpt>
      <trkpt lat="44.57649" lon="6.29034">
        <ele>1556</ele>
        <time>2009-11-23T07:24:21Z</time>
      </trkpt>
      <trkpt lat="44.57616" lon="6.28969">
        <ele>1553</ele>
        <time>2009-11-23T07:24:21Z</time>
      </trkpt>
      <trkpt lat="44.57601" lon="6.28927">
        <ele>1555</ele>
        <time>2009-11-23T07:24:21Z</time>
      </trkpt>
      <trkpt lat="44.5762" lon="6.28853">
        <ele>1556</ele>
        <time>2009-11-23T07:24:21Z</time>
      </trkpt>
      <trkpt lat="44.57686" lon="6.2875">
        <ele>1548</ele>
        <time>2009-11-23T07:24:21Z</time>
      </trkpt>
      <trkpt lat="44.57628" lon="6.28737">
        <ele>1529</ele>
        <time>2009-11-23T07:24:21Z</time>
      </trkpt>
      <trkpt lat="44.57568" lon="6.28663">
        <ele>1506</ele>
        <time>2009-11-23T07:24:21Z</time>
      </trkpt>
      <trkpt lat="44.57645" lon="6.2864">
        <ele>1512</ele>
        <time>2009-11-23T07:24:21Z</time>
      </trkpt>
      <trkpt lat="44.57659" lon="6.28566">
        <ele>1510</ele>
        <time>2009-11-23T07:24:21Z</time>
      </trkpt>
      <trkpt lat="44.57677" lon="6.28513">
        <ele>1513</ele>
        <time>2009-11-23T07:24:21Z</time>
      </trkpt>
      <trkpt lat="44.57706" lon="6.28471">
        <ele>1516</ele>
        <time>2009-11-23T07:24:21Z</time>
      </trkpt>
      <trkpt lat="44.57773" lon="6.2846">
        <ele>1518</ele>
        <time>2009-11-23T07:24:21Z</time>
      </trkpt>
      <trkpt lat="44.57846" lon="6.28434">
        <ele>1527</ele>
        <time>2009-11-23T07:24:21Z</time>
      </trkpt>
      <trkpt lat="44.57879" lon="6.28405">
        <ele>1531</ele>
        <time>2009-11-23T07:24:21Z</time>
      </trkpt>
      <trkpt lat="44.57947" lon="6.28195">
        <ele>1523</ele>
        <time>2009-11-23T07:24:21Z</time>
      </trkpt>
      <trkpt lat="44.57931" lon="6.28138">
        <ele>1515</ele>
        <time>2009-11-23T07:24:21Z</time>
      </trkpt>
      <trkpt lat="44.57987" lon="6.28101">
        <ele>1530</ele>
        <time>2009-11-23T07:24:21Z</time>
      </trkpt>
      <trkpt lat="44.58012" lon="6.2803">
        <ele>1536</ele>
        <time>2009-11-23T07:24:21Z</time>
      </trkpt>
      <trkpt lat="44.58059" lon="6.2792">
        <ele>1544</ele>
        <time>2009-11-23T07:24:21Z</time>
      </trkpt>
      <trkpt lat="44.58112" lon="6.2781">
        <ele>1552</ele>
        <time>2009-11-23T07:24:21Z</time>
      </trkpt>
      <trkpt lat="44.58139" lon="6.27755">
        <ele>1561</ele>
        <time>2009-11-23T07:24:21Z</time>
      </trkpt>
      <trkpt lat="44.58149" lon="6.27655">
        <ele>1559</ele>
        <time>2009-11-23T07:24:21Z</time>
      </trkpt>
      <trkpt lat="44.5819" lon="6.27576">
        <ele>1565</ele>
        <time>2009-11-23T07:24:21Z</time>
      </trkpt>
      <trkpt lat="44.58247" lon="6.27552">
        <ele>1568</ele>
        <time>2009-11-23T07:24:21Z</time>
      </trkpt>
      <trkpt lat="44.58301" lon="6.27565">
        <ele>1568</ele>
        <time>2009-11-23T07:24:21Z</time>
      </trkpt>
      <trkpt lat="44.58341" lon="6.27587">
        <ele>1567</ele>
        <time>2009-11-23T07:24:21Z</time>
      </trkpt>
      <trkpt lat="44.58387" lon="6.27672">
        <ele>1575</ele>
        <time>2009-11-23T07:24:21Z</time>
      </trkpt>
      <trkpt lat="44.58412" lon="6.27674">
        <ele>1574</ele>
        <time>2009-11-23T07:24:21Z</time>
      </trkpt>
      <trkpt lat="44.58415" lon="6.27642">
        <ele>1570</ele>
        <time>2009-11-23T07:24:21Z</time>
      </trkpt>
      <trkpt lat="44.58433" lon="6.27596">
        <ele>1570</ele>
        <time>2009-11-23T07:24:21Z</time>
      </trkpt>
      <trkpt lat="44.58423" lon="6.27552">
        <ele>1568</ele>
        <time>2009-11-23T07:24:21Z</time>
      </trkpt>
      <trkpt lat="44.58371" lon="6.27479">
        <ele>1562</ele>
        <time>2009-11-23T07:24:21Z</time>
      </trkpt>
      <trkpt lat="44.58346" lon="6.27433">
        <ele>1556</ele>
        <time>2009-11-23T07:24:21Z</time>
      </trkpt>
      <trkpt lat="44.58316" lon="6.27264">
        <ele>1555</ele>
        <time>2009-11-23T07:24:21Z</time>
      </trkpt>
      <trkpt lat="44.5832" lon="6.27207">
        <ele>1561</ele>
        <time>2009-11-23T07:24:21Z</time>
      </trkpt>
      <trkpt lat="44.58322" lon="6.27176">
        <ele>1563</ele>
        <time>2009-11-23T07:24:21Z</time>
      </trkpt>
      <trkpt lat="44.58307" lon="6.27143">
        <ele>1558</ele>
        <time>2009-11-23T07:24:21Z</time>
      </trkpt>
      <trkpt lat="44.58305" lon="6.27074">
        <ele>1552</ele>
        <time>2009-11-23T07:24:21Z</time>
      </trkpt>
      <trkpt lat="44.5843" lon="6.27089">
        <ele>1567</ele>
        <time>2009-11-23T07:24:21Z</time>
      </trkpt>
      <trkpt lat="44.58504" lon="6.27097">
        <ele>1584</ele>
        <time>2009-11-23T07:24:21Z</time>
      </trkpt>
      <trkpt lat="44.58538" lon="6.27037">
        <ele>1594</ele>
        <time>2009-11-23T07:24:21Z</time>
      </trkpt>
      <trkpt lat="44.58569" lon="6.26979">
        <ele>1609</ele>
        <time>2009-11-23T07:24:21Z</time>
      </trkpt>
      <trkpt lat="44.58599" lon="6.26918">
        <ele>1624</ele>
        <time>2009-11-23T07:24:21Z</time>
      </trkpt>
      <trkpt lat="44.58622" lon="6.26832">
        <ele>1646</ele>
        <time>2009-11-23T07:24:21Z</time>
      </trkpt>
      <trkpt lat="44.58646" lon="6.26714">
        <ele>1670</ele>
        <time>2009-11-23T07:24:21Z</time>
      </trkpt>
      <trkpt lat="44.58666" lon="6.26665">
        <ele>1678</ele>
        <time>2009-11-23T07:24:21Z</time>
      </trkpt>
      <trkpt lat="44.58693" lon="6.26663">
        <ele>1683</ele>
        <time>2009-11-23T07:24:21Z</time>
      </trkpt>
      <trkpt lat="44.58748" lon="6.26655">
        <ele>1691</ele>
        <time>2009-11-23T07:24:21Z</time>
      </trkpt>
      <trkpt lat="44.58874" lon="6.26575">
        <ele>1672</ele>
        <time>2009-11-23T07:24:21Z</time>
      </trkpt>
      <trkpt lat="44.58948" lon="6.26524">
        <ele>1657</ele>
        <time>2009-11-23T07:24:21Z</time>
      </trkpt>
      <trkpt lat="44.59004" lon="6.26465">
        <ele>1643</ele>
        <time>2009-11-23T07:24:21Z</time>
      </trkpt>
      <trkpt lat="44.59021" lon="6.26431">
        <ele>1637</ele>
        <time>2009-11-23T07:24:21Z</time>
      </trkpt>
      <trkpt lat="44.59018" lon="6.26387">
        <ele>1622</ele>
        <time>2009-11-23T07:24:21Z</time>
      </trkpt>
      <trkpt lat="44.59" lon="6.26392">
        <ele>1615</ele>
        <time>2009-11-23T07:24:21Z</time>
      </trkpt>
      <trkpt lat="44.58992" lon="6.2636">
        <ele>1606</ele>
        <time>2009-11-23T07:24:21Z</time>
      </trkpt>
      <trkpt lat="44.5894" lon="6.26362">
        <ele>1594</ele>
        <time>2009-11-23T07:24:21Z</time>
      </trkpt>
      <trkpt lat="44.58925" lon="6.26343">
        <ele>1592</ele>
        <time>2009-11-23T07:24:21Z</time>
      </trkpt>
      <trkpt lat="44.58927" lon="6.26292">
        <ele>1601</ele>
        <time>2009-11-23T07:24:21Z</time>
      </trkpt>
      <trkpt lat="44.58915" lon="6.2626">
        <ele>1604</ele>
        <time>2009-11-23T07:24:21Z</time>
      </trkpt>
      <trkpt lat="44.5883" lon="6.26229">
        <ele>1590</ele>
        <time>2009-11-23T07:24:21Z</time>
      </trkpt>
      <trkpt lat="44.58784" lon="6.26128">
        <ele>1591</ele>
        <time>2009-11-23T07:24:21Z</time>
      </trkpt>
      <trkpt lat="44.58755" lon="6.26123">
        <ele>1586</ele>
        <time>2009-11-23T07:24:21Z</time>
      </trkpt>
      <trkpt lat="44.58696" lon="6.26144">
        <ele>1581</ele>
        <time>2009-11-23T07:24:21Z</time>
      </trkpt>
      <trkpt lat="44.58671" lon="6.26145">
        <ele>1579</ele>
        <time>2009-11-23T07:24:21Z</time>
      </trkpt>
      <trkpt lat="44.58638" lon="6.26124">
        <ele>1585</ele>
        <time>2009-11-23T07:24:21Z</time>
      </trkpt>
      <trkpt lat="44.586" lon="6.26065">
        <ele>1591</ele>
        <time>2009-11-23T07:24:21Z</time>
      </trkpt>
      <trkpt lat="44.58575" lon="6.26009">
        <ele>1592</ele>
        <time>2009-11-23T07:24:21Z</time>
      </trkpt>
      <trkpt lat="44.58515" lon="6.25854">
        <ele>1597</ele>
        <time>2009-11-23T07:24:21Z</time>
      </trkpt>
      <trkpt lat="44.58448" lon="6.25855">
        <ele>1589</ele>
        <time>2009-11-23T07:24:21Z</time>
      </trkpt>
      <trkpt lat="44.58422" lon="6.25803">
        <ele>1595</ele>
        <time>2009-11-23T07:24:21Z</time>
      </trkpt>
      <trkpt lat="44.58394" lon="6.2577">
        <ele>1592</ele>
        <time>2009-11-23T07:24:21Z</time>
      </trkpt>
      <trkpt lat="44.58364" lon="6.25724">
        <ele>1592</ele>
        <time>2009-11-23T07:24:21Z</time>
      </trkpt>
      <trkpt lat="44.58372" lon="6.25645">
        <ele>1603</ele>
        <time>2009-11-23T07:24:21Z</time>
      </trkpt>
      <trkpt lat="44.58462" lon="6.25523">
        <ele>1601</ele>
        <time>2009-11-23T07:24:21Z</time>
      </trkpt>
      <trkpt lat="44.58565" lon="6.25413">
        <ele>1598</ele>
        <time>2009-11-23T07:24:21Z</time>
      </trkpt>
      <trkpt lat="44.58672" lon="6.25314">
        <ele>1598</ele>
        <time>2009-11-23T07:24:21Z</time>
      </trkpt>
      <trkpt lat="44.58722" lon="6.25223">
        <ele>1595</ele>
        <time>2009-11-23T07:24:21Z</time>
      </trkpt>
      <trkpt lat="44.58749" lon="6.25108">
        <ele>1591</ele>
        <time>2009-11-23T07:24:21Z</time>
      </trkpt>
      <trkpt lat="44.58761" lon="6.24961">
        <ele>1593</ele>
        <time>2009-11-23T07:24:21Z</time>
      </trkpt>
      <trkpt lat="44.58742" lon="6.24912">
        <ele>1587</ele>
        <time>2009-11-23T07:24:21Z</time>
      </trkpt>
      <trkpt lat="44.58695" lon="6.24862">
        <ele>1576</ele>
        <time>2009-11-23T07:24:21Z</time>
      </trkpt>
      <trkpt lat="44.58626" lon="6.24822">
        <ele>1577</ele>
        <time>2009-11-23T07:24:21Z</time>
      </trkpt>
      <trkpt lat="44.58592" lon="6.24779">
        <ele>1582</ele>
        <time>2009-11-23T07:24:21Z</time>
      </trkpt>
      <trkpt lat="44.5859" lon="6.24712">
        <ele>1587</ele>
        <time>2009-11-23T07:24:21Z</time>
      </trkpt>
      <trkpt lat="44.58622" lon="6.2463">
        <ele>1592</ele>
        <time>2009-11-23T07:24:21Z</time>
      </trkpt>
      <trkpt lat="44.58623" lon="6.24595">
        <ele>1591</ele>
        <time>2009-11-23T07:24:21Z</time>
      </trkpt>
      <trkpt lat="44.58599" lon="6.24518">
        <ele>1583</ele>
        <time>2009-11-23T07:24:21Z</time>
      </trkpt>
      <trkpt lat="44.5856" lon="6.24399">
        <ele>1580</ele>
        <time>2009-11-23T07:24:21Z</time>
      </trkpt>
      <trkpt lat="44.58521" lon="6.24292">
        <ele>1576</ele>
        <time>2009-11-23T07:24:21Z</time>
      </trkpt>
      <trkpt lat="44.5855" lon="6.24177">
        <ele>1586</ele>
        <time>2009-11-23T07:24:21Z</time>
      </trkpt>
      <trkpt lat="44.58574" lon="6.24063">
        <ele>1588</ele>
        <time>2009-11-23T07:24:21Z</time>
      </trkpt>
      <trkpt lat="44.58586" lon="6.23997">
        <ele>1582</ele>
        <time>2009-11-23T07:24:21Z</time>
      </trkpt>
      <trkpt lat="44.58613" lon="6.23923">
        <ele>1588</ele>
        <time>2009-11-23T07:24:21Z</time>
      </trkpt>
      <trkpt lat="44.58605" lon="6.23885">
        <ele>1584</ele>
        <time>2009-11-23T07:24:21Z</time>
      </trkpt>
      <trkpt lat="44.5858" lon="6.23839">
        <ele>1575</ele>
        <time>2009-11-23T07:24:21Z</time>
      </trkpt>
      <trkpt lat="44.58561" lon="6.238">
        <ele>1576</ele>
        <time>2009-11-23T07:24:21Z</time>
      </trkpt>
      <trkpt lat="44.58552" lon="6.23746">
        <ele>1584</ele>
        <time>2009-11-23T07:24:21Z</time>
      </trkpt>
      <trkpt lat="44.5852" lon="6.23703">
        <ele>1578</ele>
        <time>2009-11-23T07:24:21Z</time>
      </trkpt>
      <trkpt lat="44.58481" lon="6.2365">
        <ele>1577</ele>
        <time>2009-11-23T07:24:21Z</time>
      </trkpt>
      <trkpt lat="44.5844" lon="6.23606">
        <ele>1582</ele>
        <time>2009-11-23T07:24:21Z</time>
      </trkpt>
      <trkpt lat="44.58414" lon="6.23566">
        <ele>1587</ele>
        <time>2009-11-23T07:24:21Z</time>
      </trkpt>
      <trkpt lat="44.58447" lon="6.23531">
        <ele>1607</ele>
        <time>2009-11-23T07:24:21Z</time>
      </trkpt>
      <trkpt lat="44.58516" lon="6.23491">
        <ele>1614</ele>
        <time>2009-11-23T07:24:21Z</time>
      </trkpt>
      <trkpt lat="44.58561" lon="6.23479">
        <ele>1602</ele>
        <time>2009-11-23T07:24:21Z</time>
      </trkpt>
      <trkpt lat="44.58616" lon="6.23511">
        <ele>1597</ele>
        <time>2009-11-23T07:24:21Z</time>
      </trkpt>
      <trkpt lat="44.58675" lon="6.23566">
        <ele>1602</ele>
        <time>2009-11-23T07:24:21Z</time>
      </trkpt>
      <trkpt lat="44.58711" lon="6.23565">
        <ele>1594</ele>
        <time>2009-11-23T07:24:21Z</time>
      </trkpt>
      <trkpt lat="44.58773" lon="6.23604">
        <ele>1605</ele>
        <time>2009-11-23T07:24:21Z</time>
      </trkpt>
      <trkpt lat="44.58866" lon="6.23591">
        <ele>1596</ele>
        <time>2009-11-23T07:24:21Z</time>
      </trkpt>
      <trkpt lat="44.58909" lon="6.23569">
        <ele>1590</ele>
        <time>2009-11-23T07:24:21Z</time>
      </trkpt>
      <trkpt lat="44.58923" lon="6.23551">
        <ele>1593</ele>
        <time>2009-11-23T07:24:21Z</time>
      </trkpt>
      <trkpt lat="44.58919" lon="6.23497">
        <ele>1587</ele>
        <time>2009-11-23T07:24:21Z</time>
      </trkpt>
      <trkpt lat="44.58929" lon="6.23451">
        <ele>1594</ele>
        <time>2009-11-23T07:24:21Z</time>
      </trkpt>
      <trkpt lat="44.58918" lon="6.23387">
        <ele>1588</ele>
        <time>2009-11-23T07:24:21Z</time>
      </trkpt>
      <trkpt lat="44.58913" lon="6.23327">
        <ele>1591</ele>
        <time>2009-11-23T07:24:21Z</time>
      </trkpt>
      <trkpt lat="44.5894" lon="6.23263">
        <ele>1601</ele>
        <time>2009-11-23T07:24:21Z</time>
      </trkpt>
      <trkpt lat="44.58922" lon="6.23208">
        <ele>1582</ele>
        <time>2009-11-23T07:24:21Z</time>
      </trkpt>
      <trkpt lat="44.58889" lon="6.23124">
        <ele>1580</ele>
        <time>2009-11-23T07:24:21Z</time>
      </trkpt>
      <trkpt lat="44.58878" lon="6.23057">
        <ele>1590</ele>
        <time>2009-11-23T07:24:21Z</time>
      </trkpt>
      <trkpt lat="44.58863" lon="6.23021">
        <ele>1586</ele>
        <time>2009-11-23T07:24:21Z</time>
      </trkpt>
      <trkpt lat="44.58892" lon="6.22988">
        <ele>1602</ele>
        <time>2009-11-23T07:24:21Z</time>
      </trkpt>
      <trkpt lat="44.58926" lon="6.22978">
        <ele>1603</ele>
        <time>2009-11-23T07:24:21Z</time>
      </trkpt>
      <trkpt lat="44.58982" lon="6.22985">
        <ele>1602</ele>
        <time>2009-11-23T07:24:21Z</time>
      </trkpt>
      <trkpt lat="44.59103" lon="6.23053">
        <ele>1607</ele>
        <time>2009-11-23T07:24:21Z</time>
      </trkpt>
      <trkpt lat="44.59138" lon="6.23075">
        <ele>1614</ele>
        <time>2009-11-23T07:24:21Z</time>
      </trkpt>
      <trkpt lat="44.59187" lon="6.23043">
        <ele>1592</ele>
        <time>2009-11-23T07:24:21Z</time>
      </trkpt>
      <trkpt lat="44.59211" lon="6.23073">
        <ele>1589</ele>
        <time>2009-11-23T07:24:21Z</time>
      </trkpt>
      <trkpt lat="44.59256" lon="6.23184">
        <ele>1603</ele>
        <time>2009-11-23T07:24:21Z</time>
      </trkpt>
      <trkpt lat="44.59314" lon="6.23257">
        <ele>1611</ele>
        <time>2009-11-23T07:24:21Z</time>
      </trkpt>
      <trkpt lat="44.5937" lon="6.23324">
        <ele>1608</ele>
        <time>2009-11-23T07:24:21Z</time>
      </trkpt>
      <trkpt lat="44.59399" lon="6.23332">
        <ele>1591</ele>
        <time>2009-11-23T07:24:21Z</time>
      </trkpt>
      <trkpt lat="44.59408" lon="6.23355">
        <ele>1586</ele>
        <time>2009-11-23T07:24:21Z</time>
      </trkpt>
      <trkpt lat="44.59395" lon="6.23449">
        <ele>1599</ele>
        <time>2009-11-23T07:24:21Z</time>
      </trkpt>
      <trkpt lat="44.59409" lon="6.23503">
        <ele>1598</ele>
        <time>2009-11-23T07:24:21Z</time>
      </trkpt>
      <trkpt lat="44.59398" lon="6.23572">
        <ele>1601</ele>
        <time>2009-11-23T07:24:21Z</time>
      </trkpt>
      <trkpt lat="44.59379" lon="6.23605">
        <ele>1605</ele>
        <time>2009-11-23T07:24:21Z</time>
      </trkpt>
      <trkpt lat="44.59374" lon="6.2368">
        <ele>1612</ele>
        <time>2009-11-23T07:24:21Z</time>
      </trkpt>
      <trkpt lat="44.59348" lon="6.23713">
        <ele>1624</ele>
        <time>2009-11-23T07:24:21Z</time>
      </trkpt>
      <trkpt lat="44.59358" lon="6.23748">
        <ele>1636</ele>
        <time>2009-11-23T07:24:21Z</time>
      </trkpt>
      <trkpt lat="44.59405" lon="6.23752">
        <ele>1626</ele>
        <time>2009-11-23T07:24:21Z</time>
      </trkpt>
      <trkpt lat="44.5943" lon="6.23791">
        <ele>1629</ele>
        <time>2009-11-23T07:24:21Z</time>
      </trkpt>
      <trkpt lat="44.59467" lon="6.23838">
        <ele>1623</ele>
        <time>2009-11-23T07:24:21Z</time>
      </trkpt>
      <trkpt lat="44.59493" lon="6.23919">
        <ele>1614</ele>
        <time>2009-11-23T07:24:21Z</time>
      </trkpt>
      <trkpt lat="44.59501" lon="6.23963">
        <ele>1612</ele>
        <time>2009-11-23T07:24:21Z</time>
      </trkpt>
      <trkpt lat="44.5949" lon="6.24013">
        <ele>1631</ele>
        <time>2009-11-23T07:24:21Z</time>
      </trkpt>
      <trkpt lat="44.59522" lon="6.24075">
        <ele>1629</ele>
        <time>2009-11-23T07:24:21Z</time>
      </trkpt>
      <trkpt lat="44.59551" lon="6.2414">
        <ele>1620</ele>
        <time>2009-11-23T07:24:21Z</time>
      </trkpt>
      <trkpt lat="44.59551" lon="6.24203">
        <ele>1623</ele>
        <time>2009-11-23T07:24:21Z</time>
      </trkpt>
      <trkpt lat="44.59562" lon="6.24264">
        <ele>1616</ele>
        <time>2009-11-23T07:24:21Z</time>
      </trkpt>
      <trkpt lat="44.59545" lon="6.2436">
        <ele>1648</ele>
        <time>2009-11-23T07:24:21Z</time>
      </trkpt>
      <trkpt lat="44.59574" lon="6.24387">
        <ele>1650</ele>
        <time>2009-11-23T07:24:21Z</time>
      </trkpt>
      <trkpt lat="44.59609" lon="6.24396">
        <ele>1640</ele>
        <time>2009-11-23T07:24:21Z</time>
      </trkpt>
      <trkpt lat="44.59734" lon="6.24572">
        <ele>1645</ele>
        <time>2009-11-23T07:24:21Z</time>
      </trkpt>
      <trkpt lat="44.59771" lon="6.24593">
        <ele>1636</ele>
        <time>2009-11-23T07:24:21Z</time>
      </trkpt>
      <trkpt lat="44.59791" lon="6.24658">
        <ele>1650</ele>
        <time>2009-11-23T07:24:21Z</time>
      </trkpt>
      <trkpt lat="44.59838" lon="6.24683">
        <ele>1674</ele>
        <time>2009-11-23T07:24:21Z</time>
      </trkpt>
      <trkpt lat="44.59876" lon="6.24676">
        <ele>1684</ele>
        <time>2009-11-23T07:24:21Z</time>
      </trkpt>
      <trkpt lat="44.59905" lon="6.24618">
        <ele>1666</ele>
        <time>2009-11-23T07:24:21Z</time>
      </trkpt>
      <trkpt lat="44.5994" lon="6.2458">
        <ele>1662</ele>
        <time>2009-11-23T07:24:21Z</time>
      </trkpt>
      <trkpt lat="44.59985" lon="6.24539">
        <ele>1658</ele>
        <time>2009-11-23T07:24:21Z</time>
      </trkpt>
      <trkpt lat="44.59985" lon="6.24517">
        <ele>1646</ele>
        <time>2009-11-23T07:24:21Z</time>
      </trkpt>
      <trkpt lat="44.5993" lon="6.24491">
        <ele>1621</ele>
        <time>2009-11-23T07:24:21Z</time>
      </trkpt>
      <trkpt lat="44.59884" lon="6.24469">
        <ele>1605</ele>
        <time>2009-11-23T07:24:21Z</time>
      </trkpt>
      <trkpt lat="44.59847" lon="6.24422">
        <ele>1598</ele>
        <time>2009-11-23T07:24:21Z</time>
      </trkpt>
      <trkpt lat="44.59829" lon="6.24364">
        <ele>1602</ele>
        <time>2009-11-23T07:24:21Z</time>
      </trkpt>
      <trkpt lat="44.59824" lon="6.24316">
        <ele>1603</ele>
        <time>2009-11-23T07:24:21Z</time>
      </trkpt>
      <trkpt lat="44.59824" lon="6.2425">
        <ele>1599</ele>
        <time>2009-11-23T07:24:21Z</time>
      </trkpt>
      <trkpt lat="44.59832" lon="6.24213">
        <ele>1599</ele>
        <time>2009-11-23T07:24:21Z</time>
      </trkpt>
      <trkpt lat="44.5982" lon="6.24181">
        <ele>1583</ele>
        <time>2009-11-23T07:24:21Z</time>
      </trkpt>
      <trkpt lat="44.59826" lon="6.24121">
        <ele>1586</ele>
        <time>2009-11-23T07:24:21Z</time>
      </trkpt>
      <trkpt lat="44.59812" lon="6.24086">
        <ele>1574</ele>
        <time>2009-11-23T07:24:21Z</time>
      </trkpt>
      <trkpt lat="44.59802" lon="6.2405">
        <ele>1568</ele>
        <time>2009-11-23T07:24:21Z</time>
      </trkpt>
      <trkpt lat="44.59799" lon="6.24003">
        <ele>1567</ele>
        <time>2009-11-23T07:24:21Z</time>
      </trkpt>
      <trkpt lat="44.59814" lon="6.2396">
        <ele>1568</ele>
        <time>2009-11-23T07:24:21Z</time>
      </trkpt>
      <trkpt lat="44.59828" lon="6.23939">
        <ele>1573</ele>
        <time>2009-11-23T07:24:21Z</time>
      </trkpt>
      <trkpt lat="44.59856" lon="6.23919">
        <ele>1579</ele>
        <time>2009-11-23T07:24:21Z</time>
      </trkpt>
      <trkpt lat="44.59852" lon="6.2389">
        <ele>1569</ele>
        <time>2009-11-23T07:24:21Z</time>
      </trkpt>
      <trkpt lat="44.59833" lon="6.23873">
        <ele>1555</ele>
        <time>2009-11-23T07:24:21Z</time>
      </trkpt>
      <trkpt lat="44.59816" lon="6.23843">
        <ele>1546</ele>
        <time>2009-11-23T07:24:21Z</time>
      </trkpt>
      <trkpt lat="44.59819" lon="6.23809">
        <ele>1548</ele>
        <time>2009-11-23T07:24:21Z</time>
      </trkpt>
      <trkpt lat="44.59847" lon="6.23779">
        <ele>1554</ele>
        <time>2009-11-23T07:24:21Z</time>
      </trkpt>
      <trkpt lat="44.59844" lon="6.23754">
        <ele>1547</ele>
        <time>2009-11-23T07:24:21Z</time>
      </trkpt>
      <trkpt lat="44.59831" lon="6.23725">
        <ele>1541</ele>
        <time>2009-11-23T07:24:21Z</time>
      </trkpt>
      <trkpt lat="44.59832" lon="6.2369">
        <ele>1545</ele>
        <time>2009-11-23T07:24:21Z</time>
      </trkpt>
      <trkpt lat="44.59876" lon="6.23658">
        <ele>1555</ele>
        <time>2009-11-23T07:24:21Z</time>
      </trkpt>
      <trkpt lat="44.59884" lon="6.2364">
        <ele>1548</ele>
        <time>2009-11-23T07:24:21Z</time>
      </trkpt>
      <trkpt lat="44.5988" lon="6.23618">
        <ele>1537</ele>
        <time>2009-11-23T07:24:21Z</time>
      </trkpt>
      <trkpt lat="44.59866" lon="6.23569">
        <ele>1528</ele>
        <time>2009-11-23T07:24:21Z</time>
      </trkpt>
      <trkpt lat="44.59916" lon="6.23554">
        <ele>1537</ele>
        <time>2009-11-23T07:24:21Z</time>
      </trkpt>
      <trkpt lat="44.59946" lon="6.2354">
        <ele>1535</ele>
        <time>2009-11-23T07:24:21Z</time>
      </trkpt>
      <trkpt lat="44.59942" lon="6.23509">
        <ele>1523</ele>
        <time>2009-11-23T07:24:21Z</time>
      </trkpt>
      <trkpt lat="44.59921" lon="6.23491">
        <ele>1513</ele>
        <time>2009-11-23T07:24:21Z</time>
      </trkpt>
      <trkpt lat="44.59903" lon="6.23478">
        <ele>1508</ele>
        <time>2009-11-23T07:24:21Z</time>
      </trkpt>
      <trkpt lat="44.59911" lon="6.23431">
        <ele>1511</ele>
        <time>2009-11-23T07:24:21Z</time>
      </trkpt>
      <trkpt lat="44.59904" lon="6.23399">
        <ele>1512</ele>
        <time>2009-11-23T07:24:21Z</time>
      </trkpt>
      <trkpt lat="44.59898" lon="6.23364">
        <ele>1512</ele>
        <time>2009-11-23T07:24:21Z</time>
      </trkpt>
      <trkpt lat="44.59897" lon="6.23332">
        <ele>1508</ele>
        <time>2009-11-23T07:24:21Z</time>
      </trkpt>
      <trkpt lat="44.59864" lon="6.23311">
        <ele>1490</ele>
        <time>2009-11-23T07:24:21Z</time>
      </trkpt>
      <trkpt lat="44.59829" lon="6.2329">
        <ele>1479</ele>
        <time>2009-11-23T07:24:21Z</time>
      </trkpt>
      <trkpt lat="44.59801" lon="6.2325">
        <ele>1476</ele>
        <time>2009-11-23T07:24:21Z</time>
      </trkpt>
      <trkpt lat="44.59789" lon="6.23199">
        <ele>1477</ele>
        <time>2009-11-23T07:24:21Z</time>
      </trkpt>
      <trkpt lat="44.59785" lon="6.2312">
        <ele>1481</ele>
        <time>2009-11-23T07:24:21Z</time>
      </trkpt>
      <trkpt lat="44.59772" lon="6.23097">
        <ele>1476</ele>
        <time>2009-11-23T07:24:21Z</time>
      </trkpt>
      <trkpt lat="44.59775" lon="6.23034">
        <ele>1481</ele>
        <time>2009-11-23T07:24:21Z</time>
      </trkpt>
      <trkpt lat="44.59778" lon="6.22933">
        <ele>1484</ele>
        <time>2009-11-23T07:24:21Z</time>
      </trkpt>
      <trkpt lat="44.59773" lon="6.22889">
        <ele>1487</ele>
        <time>2009-11-23T07:24:21Z</time>
      </trkpt>
      <trkpt lat="44.59768" lon="6.22781">
        <ele>1500</ele>
        <time>2009-11-23T07:24:21Z</time>
      </trkpt>
      <trkpt lat="44.59768" lon="6.2251">
        <ele>1520</ele>
        <time>2009-11-23T07:24:21Z</time>
      </trkpt>
      <trkpt lat="44.59764" lon="6.22456">
        <ele>1523</ele>
        <time>2009-11-23T07:24:21Z</time>
      </trkpt>
      <trkpt lat="44.59754" lon="6.22405">
        <ele>1527</ele>
        <time>2009-11-23T07:24:21Z</time>
      </trkpt>
      <trkpt lat="44.59762" lon="6.22371">
        <ele>1536</ele>
        <time>2009-11-23T07:24:21Z</time>
      </trkpt>
      <trkpt lat="44.59799" lon="6.22342">
        <ele>1543</ele>
        <time>2009-11-23T07:24:21Z</time>
      </trkpt>
      <trkpt lat="44.5987" lon="6.22316">
        <ele>1553</ele>
        <time>2009-11-23T07:24:21Z</time>
      </trkpt>
      <trkpt lat="44.59898" lon="6.2228">
        <ele>1555</ele>
        <time>2009-11-23T07:24:21Z</time>
      </trkpt>
      <trkpt lat="44.59913" lon="6.22234">
        <ele>1554</ele>
        <time>2009-11-23T07:24:21Z</time>
      </trkpt>
      <trkpt lat="44.59918" lon="6.22168">
        <ele>1550</ele>
        <time>2009-11-23T07:24:21Z</time>
      </trkpt>
      <trkpt lat="44.59923" lon="6.2208">
        <ele>1556</ele>
        <time>2009-11-23T07:24:21Z</time>
      </trkpt>
      <trkpt lat="44.59933" lon="6.22005">
        <ele>1561</ele>
        <time>2009-11-23T07:24:21Z</time>
      </trkpt>
      <trkpt lat="44.59946" lon="6.21959">
        <ele>1564</ele>
        <time>2009-11-23T07:24:21Z</time>
      </trkpt>
      <trkpt lat="44.59962" lon="6.21944">
        <ele>1568</ele>
        <time>2009-11-23T07:24:21Z</time>
      </trkpt>
      <trkpt lat="44.59968" lon="6.2197">
        <ele>1569</ele>
        <time>2009-11-23T07:24:21Z</time>
      </trkpt>
      <trkpt lat="44.59966" lon="6.22011">
        <ele>1568</ele>
        <time>2009-11-23T07:24:21Z</time>
      </trkpt>
      <trkpt lat="44.59969" lon="6.22055">
        <ele>1566</ele>
        <time>2009-11-23T07:24:21Z</time>
      </trkpt>
      <trkpt lat="44.59993" lon="6.22072">
        <ele>1567</ele>
        <time>2009-11-23T07:24:21Z</time>
      </trkpt>
      <trkpt lat="44.60016" lon="6.22064">
        <ele>1569</ele>
        <time>2009-11-23T07:24:21Z</time>
      </trkpt>
      <trkpt lat="44.60066" lon="6.22049">
        <ele>1572</ele>
        <time>2009-11-23T07:24:21Z</time>
      </trkpt>
      <trkpt lat="44.6011" lon="6.22017">
        <ele>1572</ele>
        <time>2009-11-23T07:24:21Z</time>
      </trkpt>
      <trkpt lat="44.60192" lon="6.21985">
        <ele>1572</ele>
        <time>2009-11-23T07:24:21Z</time>
      </trkpt>
      <trkpt lat="44.6029" lon="6.21954">
        <ele>1566</ele>
        <time>2009-11-23T07:24:21Z</time>
      </trkpt>
      <trkpt lat="44.60398" lon="6.21946">
        <ele>1558</ele>
        <time>2009-11-23T07:24:21Z</time>
      </trkpt>
      <trkpt lat="44.60453" lon="6.21918">
        <ele>1552</ele>
        <time>2009-11-23T07:24:21Z</time>
      </trkpt>
      <trkpt lat="44.60457" lon="6.2189">
        <ele>1548</ele>
        <time>2009-11-23T07:24:21Z</time>
      </trkpt>
      <trkpt lat="44.60499" lon="6.21846">
        <ele>1542</ele>
        <time>2009-11-23T07:24:21Z</time>
      </trkpt>
      <trkpt lat="44.60568" lon="6.21803">
        <ele>1528</ele>
        <time>2009-11-23T07:24:21Z</time>
      </trkpt>
      <trkpt lat="44.60627" lon="6.21785">
        <ele>1522</ele>
        <time>2009-11-23T07:24:21Z</time>
      </trkpt>
      <trkpt lat="44.60705" lon="6.2175">
        <ele>1511</ele>
        <time>2009-11-23T07:24:21Z</time>
      </trkpt>
      <trkpt lat="44.60751" lon="6.21709">
        <ele>1501</ele>
        <time>2009-11-23T07:24:21Z</time>
      </trkpt>
      <trkpt lat="44.60778" lon="6.2172">
        <ele>1498</ele>
        <time>2009-11-23T07:24:21Z</time>
      </trkpt>
      <trkpt lat="44.60819" lon="6.21704">
        <ele>1492</ele>
        <time>2009-11-23T07:24:21Z</time>
      </trkpt>
      <trkpt lat="44.60865" lon="6.21673">
        <ele>1485</ele>
        <time>2009-11-23T07:24:21Z</time>
      </trkpt>
      <trkpt lat="44.60897" lon="6.2165">
        <ele>1480</ele>
        <time>2009-11-23T07:24:21Z</time>
      </trkpt>
      <trkpt lat="44.60936" lon="6.2164">
        <ele>1476</ele>
        <time>2009-11-23T07:24:21Z</time>
      </trkpt>
      <trkpt lat="44.60993" lon="6.21634">
        <ele>1470</ele>
        <time>2009-11-23T07:24:21Z</time>
      </trkpt>
      <trkpt lat="44.6107" lon="6.21611">
        <ele>1468</ele>
        <time>2009-11-23T07:24:21Z</time>
      </trkpt>
      <trkpt lat="44.61129" lon="6.2159">
        <ele>1457</ele>
        <time>2009-11-23T07:24:21Z</time>
      </trkpt>
      <trkpt lat="44.61179" lon="6.21578">
        <ele>1444</ele>
        <time>2009-11-23T07:24:21Z</time>
      </trkpt>
      <trkpt lat="44.6124" lon="6.21582">
        <ele>1432</ele>
        <time>2009-11-23T07:24:21Z</time>
      </trkpt>
      <trkpt lat="44.61264" lon="6.21546">
        <ele>1435</ele>
        <time>2009-11-23T07:24:21Z</time>
      </trkpt>
      <trkpt lat="44.61315" lon="6.21543">
        <ele>1426</ele>
        <time>2009-11-23T07:24:21Z</time>
      </trkpt>
      <trkpt lat="44.6134" lon="6.21538">
        <ele>1426</ele>
        <time>2009-11-23T07:24:21Z</time>
      </trkpt>
      <trkpt lat="44.61387" lon="6.21564">
        <ele>1417</ele>
        <time>2009-11-23T07:24:21Z</time>
      </trkpt>
      <trkpt lat="44.61425" lon="6.21563">
        <ele>1411</ele>
        <time>2009-11-23T07:24:21Z</time>
      </trkpt>
      <trkpt lat="44.61455" lon="6.21534">
        <ele>1403</ele>
        <time>2009-11-23T07:24:21Z</time>
      </trkpt>
      <trkpt lat="44.61495" lon="6.21483">
        <ele>1399</ele>
        <time>2009-11-23T07:24:21Z</time>
      </trkpt>
      <trkpt lat="44.61522" lon="6.21431">
        <ele>1396</ele>
        <time>2009-11-23T07:24:21Z</time>
      </trkpt>
      <trkpt lat="44.61544" lon="6.21373">
        <ele>1391</ele>
        <time>2009-11-23T07:24:21Z</time>
      </trkpt>
      <trkpt lat="44.61562" lon="6.21305">
        <ele>1384</ele>
        <time>2009-11-23T07:24:21Z</time>
      </trkpt>
      <trkpt lat="44.61573" lon="6.21249">
        <ele>1382</ele>
        <time>2009-11-23T07:24:21Z</time>
      </trkpt>
      <trkpt lat="44.616" lon="6.21197">
        <ele>1379</ele>
        <time>2009-11-23T07:24:21Z</time>
      </trkpt>
      <trkpt lat="44.6163" lon="6.21168">
        <ele>1379</ele>
        <time>2009-11-23T07:24:21Z</time>
      </trkpt>
      <trkpt lat="44.61698" lon="6.21153">
        <ele>1371</ele>
        <time>2009-11-23T07:24:21Z</time>
      </trkpt>
      <trkpt lat="44.61742" lon="6.21178">
        <ele>1365</ele>
        <time>2009-11-23T07:24:21Z</time>
      </trkpt>
      <trkpt lat="44.61832" lon="6.21263">
        <ele>1357</ele>
        <time>2009-11-23T07:24:21Z</time>
      </trkpt>
      <trkpt lat="44.61928" lon="6.21283">
        <ele>1355</ele>
        <time>2009-11-23T07:24:21Z</time>
      </trkpt>
      <trkpt lat="44.62027" lon="6.21226">
        <ele>1351</ele>
        <time>2009-11-23T07:24:21Z</time>
      </trkpt>
      <trkpt lat="44.62097" lon="6.21209">
        <ele>1348</ele>
        <time>2009-11-23T07:24:21Z</time>
      </trkpt>
      <trkpt lat="44.62187" lon="6.21225">
        <ele>1347</ele>
        <time>2009-11-23T07:24:21Z</time>
      </trkpt>
      <trkpt lat="44.62202" lon="6.21172">
        <ele>1345</ele>
        <time>2009-11-23T07:24:21Z</time>
      </trkpt>
      <trkpt lat="44.62217" lon="6.21054">
        <ele>1342</ele>
        <time>2009-11-23T07:24:21Z</time>
      </trkpt>
      <trkpt lat="44.62226" lon="6.20947">
        <ele>1341</ele>
        <time>2009-11-23T07:24:21Z</time>
      </trkpt>
    </trkseg>
  </trk>
</gpx>